[{"header": {"dx": 0.06612293990616946, "dy": 0.0552356325346848, "nx": 98, "ny": 59, "la1": 35.046912555036876, "la2": 31.78801023549047, "lo1": -121.43107172385933, "lo2": -114.95102361305473, "refTime": "2026040817", "parameterCategory": 1, "parameterNumber": 2}, "data": [4.66, 4.44, 4.45, 4.05, 3.84, 4.12, 4.43, 4.43, 4.94, 4.94, 4.84, 4.4, 5.2, 4.29, 1.8, -0.88, -3.2, -3.77, -5.31, -6.32, -7.81, -7.81, -6.8, -6.7, -6.02, -5.51, -5.09, -4.98, -4.57, -4.4, -4.0, -3.35, -1.98, -1.13, 0.0, 1.08, 1.99, 2.76, 3.63, 4.54, 4.84, 6.4, 8.0, 7.9, 10.01, 11.28, 13.51, 13.49, 12.16, 9.62, 6.01, 4.54, 4.0, 3.58, 4.0, 4.98, 5.51, 5.75, 6.2, 6.26, 6.26, 5.81, 4.92, 4.92, 5.29, 5.75, 6.64, 7.1, 7.85, 8.45, 8.45, 7.55, 7.6, 7.6, 7.6, 7.15, 7.15, 6.21, 5.73, 4.34, 3.39, 2.4, 1.58, 1.79, 0.89, 0.89, 1.26, 2.68, 3.58, 3.58, 3.58, 2.53, 1.08, 0.96, -0.0, -0.0, -0.0, -2.0, 4.66, 4.44, 4.45, 4.05, 4.08, 4.1, 4.45, 4.74, 4.74, 5.01, 4.37, 5.15, 4.54, 4.19, 2.98, 0.0, -1.84, -2.99, -4.37, -5.1, -7.27, -7.9, -7.81, -8.06, -6.45, -5.94, -5.51, -4.6, -4.98, -4.54, -3.79, -2.95, -2.0, -1.27, 0.0, 2.0, 2.99, 2.8, 3.72, 4.29, 5.37, 6.64, 8.49, 9.17, 10.43, 11.38, 12.78, 12.78, 10.18, 6.64, 5.15, 5.2, 5.26, 3.95, 4.57, 5.51, 5.94, 6.64, 6.65, 6.71, 6.26, 5.81, 5.36, 5.36, 5.36, 6.2, 6.65, 7.54, 8.0, 8.9, 8.9, 8.45, 8.05, 8.05, 7.55, 7.15, 7.1, 6.21, 5.73, 4.34, 3.39, 2.4, 1.58, 1.79, 0.89, 0.89, 1.26, 2.68, 3.58, 3.58, 3.58, 2.53, 1.08, 0.96, -0.0, -0.0, -0.0, -2.0, 4.66, 4.44, 4.69, 4.45, 4.46, 4.47, 4.47, 4.75, 4.45, 4.45, 4.43, 3.48, 3.91, 3.63, 3.35, 1.7, 0.0, -1.73, -2.98, -4.88, -5.76, -7.59, -8.49, -7.9, -8.0, -6.02, -5.51, -4.6, -4.11, -4.29, -4.58, -3.72, -2.6, -1.7, 0.0, 3.22, 3.63, 4.29, 4.26, 4.96, 6.05, 7.54, 9.39, 10.21, 10.47, 10.59, 11.29, 9.06, 6.01, 4.11, 4.6, 5.26, 4.92, 4.82, 4.66, 5.51, 6.2, 6.65, 7.15, 7.15, 6.71, 6.26, 5.81, 5.81, 5.75, 6.2, 7.1, 7.55, 8.45, 8.9, 8.9, 9.39, 8.9, 8.14, 7.63, 7.12, 7.37, 6.64, 4.22, 3.16, 2.23, 2.21, 1.4, 0.0, 0.0, 0.0, 1.34, 3.13, 3.82, 3.9, 3.58, 2.21, 2.23, 2.0, 1.83, 0.96, -0.0, -1.13, 4.66, 4.44, 4.44, 4.69, 4.45, 4.46, 4.47, 4.47, 4.47, 4.47, 4.45, 4.12, 3.72, 2.47, 2.64, 1.84, 0.0, -0.94, -2.44, -4.2, -5.21, -6.3, -7.9, -8.31, -8.42, -7.81, -5.58, -4.6, -2.76, -2.47, -3.6, -4.0, -4.12, -2.99, 0.0, 3.0, 4.56, 6.01, 6.57, 7.25, 9.12, 10.6, 10.23, 9.55, 8.86, 8.86, 8.01, 4.16, 1.13, 1.2, 2.54, 4.02, 4.34, 4.82, 4.98, 5.29, 6.2, 6.65, 7.15, 7.15, 7.15, 6.71, 5.81, 6.2, 6.2, 6.65, 7.54, 7.45, 8.36, 8.82, 9.39, 9.35, 8.3, 7.28, 6.7, 6.18, 6.57, 5.51, 3.93, 0.98, 0.87, 1.13, 0.0, 0.0, 0.0, 0.0, 1.4, 2.98, 3.35, 3.82, 3.13, 2.8, 2.53, 2.23, 2.68, 3.16, 2.23, -0.0, 4.66, 4.44, 4.44, 4.44, 4.69, 4.45, 4.46, 4.81, 4.81, 4.75, 4.47, 4.45, 4.58, 3.0, 1.73, 1.75, 0.76, 0.0, -0.85, -3.21, -4.8, -5.98, -7.59, -8.82, -8.38, -9.09, -6.32, -4.56, -3.2, -0.95, -0.89, -2.59, -4.01, -3.29, 0.0, 1.18, 2.6, 6.08, 8.29, 9.79, 9.66, 9.42, 8.99, 8.66, 8.76, 8.53, 6.73, 2.95, 0.0, 0.0, 2.24, 3.13, 3.39, 4.34, 4.82, 5.29, 5.81, 6.71, 7.15, 7.6, 7.15, 6.26, 6.2, 6.2, 6.45, 6.94, 7.1, 7.37, 7.63, 8.56, 8.33, 7.15, 4.8, 3.47, 2.8, 3.22, 4.54, 4.4, 1.4, 0.0, 0.0, 0.0, 0.0, -0.96, 0.0, 0.0, 1.27, 2.53, 2.21, 2.68, 2.68, 2.4, 2.21, 2.23, 3.16, 3.72, 2.53, -0.0, 5.08, 4.66, 4.66, 4.66, 4.44, 4.69, 4.71, 4.83, 5.1, 4.73, 4.47, 4.47, 4.95, 4.74, 2.82, 1.75, 0.89, 0.0, 0.0, -1.62, -3.67, -5.72, -8.23, -8.54, -7.24, -7.24, -6.16, -4.05, -2.7, -1.33, 0.0, 0.0, 0.0, -0.8, 0.0, 0.0, 1.65, 6.31, 8.99, 8.0, 6.54, 6.2, 6.57, 9.04, 10.28, 10.04, 8.43, 6.21, 3.93, 2.8, 2.68, 2.97, 3.39, 3.9, 4.38, 5.29, 5.81, 6.26, 7.15, 7.6, 6.71, 6.26, 6.2, 6.45, 6.94, 7.37, 6.94, 6.02, 6.57, 7.2, 6.8, 5.21, 2.8, -1.6, -0.96, 0.0, 1.27, 2.53, 0.0, 0.0, 0.0, 0.0, 0.0, -0.89, 0.0, 0.89, 0.0, 1.34, 1.79, -0.0, 1.2, 1.4, 1.13, 1.98, 2.98, 3.82, 2.8, -0.0, 5.08, 4.66, 4.66, 4.66, 4.66, 5.08, 5.09, 5.1, 5.1, 4.46, 4.73, 3.84, 5.24, 5.82, 5.93, 3.6, 1.75, 0.89, 0.0, 0.0, -1.5, -4.21, -6.4, -7.15, -5.85, -5.67, -4.81, -3.47, -3.41, -3.39, -1.22, 0.89, 3.45, 3.32, 1.52, 0.0, 0.79, 4.81, 6.0, 4.98, 4.52, 3.41, 3.73, 7.44, 9.8, 9.62, 9.4, 8.06, 6.18, 5.2, 4.02, 3.58, 3.9, 4.34, 4.38, 5.36, 5.81, 6.71, 7.15, 7.6, 6.71, 6.2, 6.2, 6.64, 6.45, 6.7, 6.94, 6.2, 5.73, 6.45, 6.16, 4.89, 3.48, -0.0, -3.2, -1.98, -1.13, 0.0, 0.0, 0.0, 0.0, 0.95, 0.0, 0.0, 0.0, 0.83, 0.0, -1.13, -0.0, -0.0, -0.0, 0.87, 2.23, 2.53, 3.13, 3.13, 1.9, -0.0, 5.08, 5.08, 5.08, 4.42, 5.06, 5.32, 5.08, 5.09, 5.09, 5.1, 4.46, 3.4, 4.68, 5.15, 5.69, 5.37, 4.6, 2.47, 0.72, 0.85, 0.0, -0.78, -2.44, -3.96, -4.93, -4.81, -3.36, -5.85, -7.06, -6.0, -3.68, 0.0, 2.52, 4.9, 3.76, 1.44, 0.74, 1.75, 2.99, 2.52, 3.41, 3.36, 3.58, 4.81, 4.74, 5.8, 6.57, 7.27, 6.73, 6.13, 4.0, 4.02, 4.34, 4.82, 5.26, 5.81, 6.26, 7.15, 7.15, 7.6, 7.15, 6.71, 6.71, 6.26, 6.2, 6.45, 7.1, 6.26, 5.81, 6.26, 6.64, 6.02, 6.17, 4.82, 2.8, 0.89, 0.0, 0.0, 0.0, 0.0, 0.0, 1.52, 0.78, 0.71, 0.73, 0.72, 1.34, -2.23, -1.27, -0.0, -0.0, 1.98, 2.53, 2.97, 3.13, 2.24, -0.0, -1.9, 5.08, 5.08, 5.08, 5.06, 5.06, 5.06, 5.32, 5.08, 5.08, 5.09, 4.69, 3.35, 3.61, 2.7, 3.81, 4.56, 5.06, 3.51, 2.49, 0.93, 1.22, 1.22, 0.0, -0.89, -1.84, -1.84, -2.54, -6.94, -8.94, -5.92, -2.28, 0.0, 2.24, 3.41, 2.51, 0.79, 0.0, 0.0, 2.24, 0.0, 2.37, 4.74, 4.74, 3.68, 2.58, 1.75, 2.33, 3.77, 4.96, 4.58, 4.84, 4.02, 4.47, 5.26, 5.73, 6.26, 6.71, 7.15, 7.6, 7.6, 7.6, 6.65, 6.2, 5.81, 5.36, 6.26, 7.6, 7.6, 6.26, 5.81, 6.71, 7.15, 8.05, 7.15, 6.21, 5.29, 4.47, 4.02, 2.98, 0.0, -0.96, 0.82, 2.29, 2.47, 3.0, 2.53, 1.34, -1.9, -1.9, -0.0, 0.99, 2.21, 2.97, 3.58, 2.68, -0.0, -1.4, -1.4, 5.32, 5.08, 5.32, 5.06, 5.06, 5.29, 5.06, 5.72, 5.32, 5.08, 5.08, 5.06, 4.45, 2.75, 2.71, 2.71, 4.3, 3.42, 2.37, 1.16, 1.23, 1.18, 1.28, 0.0, 2.24, 2.68, -3.22, -5.21, -6.94, -4.81, 0.0, 0.0, 0.0, 1.7, 1.49, 0.0, 0.0, -1.83, -0.0, 2.53, 1.73, 3.19, 4.3, 3.55, 1.98, 2.0, 1.84, 1.75, 1.75, 1.84, 2.0, 3.39, 4.47, 4.92, 5.81, 6.26, 6.71, 7.1, 7.55, 8.0, 7.42, 6.94, 7.01, 4.82, 4.92, 6.26, 8.05, 8.05, 7.11, 7.1, 7.55, 7.92, 8.36, 7.56, 7.15, 6.71, 6.71, 6.26, 5.31, 2.98, 0.0, 0.0, 2.2, 3.79, 4.81, 5.86, 5.36, 3.13, 1.79, 1.26, 1.9, 2.6, 3.39, 4.02, 3.39, -0.0, -1.13, -1.6, 5.32, 5.32, 5.06, 5.06, 5.29, 5.29, 5.7, 5.7, 5.7, 5.06, 5.29, 5.7, 6.69, 5.44, 4.25, 2.49, 3.53, 2.75, 2.77, 1.99, 1.69, 0.85, 0.0, -1.9, -0.0, -0.0, 0.0, 0.0, -2.53, -1.7, -1.41, -3.13, -1.27, 1.19, 2.53, 0.0, -2.53, -1.84, -0.0, 2.76, 3.39, 2.35, 3.25, 2.49, 3.58, 3.13, 2.68, 1.72, 0.0, 0.0, 0.0, 2.21, 3.9, 4.34, 4.82, 5.73, 6.94, 7.2, 7.35, 7.76, 7.35, 6.8, 5.6, 4.57, 4.82, 6.71, 8.05, 8.45, 7.63, 6.8, 7.76, 7.98, 8.19, 7.45, 7.56, 7.56, 7.45, 6.94, 6.94, 5.51, 1.8, 0.0, 0.0, 3.07, 4.84, 6.55, 7.56, 7.15, 5.36, 4.47, 3.58, 4.02, 3.82, 3.9, 4.02, 2.8, -0.0, -0.0, 5.32, 5.32, 5.46, 5.7, 5.29, 5.45, 5.69, 5.69, 5.7, 5.7, 5.7, 6.34, 6.98, 8.15, 7.35, 5.01, 3.83, 3.83, 4.43, 4.59, 4.59, 4.37, 2.84, 1.79, -2.48, -2.0, -3.2, -1.26, -1.08, -0.0, -0.0, -1.19, -1.05, -0.96, -0.0, -0.98, -0.87, -0.0, 1.27, 2.95, 2.4, 0.0, 0.85, 2.26, 3.6, 2.68, 1.55, 0.0, 0.0, 0.0, 0.0, 0.0, 1.13, 2.23, 3.48, 4.54, 5.58, 6.18, 6.01, 6.01, 6.11, 5.49, 3.79, 3.72, 4.38, 6.71, 8.49, 8.33, 7.2, 6.11, 6.08, 6.64, 6.94, 7.12, 7.12, 7.63, 7.63, 6.8, 6.64, 6.4, 4.98, 1.08, 0.0, 1.83, 3.84, 5.75, 7.28, 7.92, 7.45, 6.55, 5.16, 4.38, 4.02, 4.47, 5.36, 4.02, 2.53, 1.13, 5.06, 5.32, 5.7, 5.7, 5.7, 5.69, 5.92, 5.92, 5.69, 5.69, 5.95, 6.08, 6.98, 8.22, 9.21, 8.8, 7.81, 6.6, 6.6, 7.09, 8.21, 9.11, 7.89, 4.44, 0.45, -2.15, -3.35, -2.21, -1.9, -1.61, -1.83, -0.88, -2.0, -2.0, -0.98, -0.0, -0.0, 1.4, 1.98, 2.23, 1.34, -0.89, 0.0, 1.75, 2.8, 1.55, 0.0, 0.0, -1.32, 0.0, 0.0, 0.0, 0.0, 0.0, 1.55, 3.48, 4.8, 3.79, 2.2, 1.99, 2.8, 1.84, 0.96, 1.27, 3.35, 5.36, 6.66, 5.81, 2.76, 1.84, 3.91, 4.43, 4.89, 4.54, 5.21, 5.58, 5.58, 5.49, 5.43, 5.72, 5.43, 4.54, 2.53, 0.88, 1.83, 4.54, 6.21, 6.64, 6.94, 6.94, 6.28, 4.8, 4.66, 5.29, 6.02, 5.36, 4.34, 3.35, 5.06, 5.46, 5.7, 5.95, 5.69, 5.67, 5.67, 5.67, 6.33, 6.08, 6.08, 6.08, 6.71, 7.93, 9.08, 9.76, 9.71, 9.09, 8.79, 9.27, 10.18, 10.81, 10.38, 8.21, 3.87, -0.45, -2.91, -3.07, -2.79, -2.84, -2.23, -1.99, -1.55, -1.27, -0.0, -0.0, 1.58, 1.9, 2.21, 2.53, 1.34, 0.0, 0.0, 1.14, 2.4, 2.6, 2.23, 0.0, 0.0, 0.0, 0.0, 0.0, 0.0, 2.68, 3.13, 1.9, 4.4, 3.13, -4.47, -3.13, 0.0, 0.0, 0.0, 0.0, 2.2, 4.0, 4.38, 2.23, 2.24, -1.27, -0.98, -1.4, -2.8, -2.4, 0.0, 0.0, 1.13, 2.68, 3.63, 3.91, 4.43, 5.15, 4.11, 2.68, 0.81, 2.53, 3.63, 3.63, 4.11, 5.46, 6.0, 5.46, 4.84, 5.75, 6.28, 6.64, 5.36, 4.38, 5.06, 5.7, 5.7, 5.95, 5.69, 5.67, 5.89, 6.31, 6.31, 6.33, 6.33, 6.33, 6.71, 7.61, 8.53, 9.59, 10.13, 10.0, 10.21, 10.42, 10.91, 11.39, 10.91, 9.7, 6.6, 1.58, -0.89, -2.6, -2.91, -3.35, -3.16, -2.22, -1.3, -0.0, -0.0, 2.0, 3.6, 2.68, 3.13, 1.2, 1.79, 0.0, 0.0, 0.0, 0.0, 1.6, 2.53, 3.6, 3.58, 2.84, 0.0, 2.24, -2.0, -0.0, -0.0, 1.7, 2.2, -0.0, -2.97, -3.48, -0.0, 2.68, 0.0, 0.0, 1.7, 4.0, 3.16, 3.0, 4.11, 3.58, -2.53, -4.74, -4.74, -4.89, -4.57, -4.02, -2.97, -1.2, 0.0, 1.08, 2.76, 3.63, 4.46, 4.22, 3.6, 1.13, 0.0, 0.0, 1.49, 3.79, 5.15, 5.43, 4.74, 5.46, 6.7, 6.2, 5.36, 5.36, 5.29, 5.7, 5.7, 6.34, 6.08, 6.33, 6.31, 6.31, 6.31, 6.31, 6.33, 6.33, 6.71, 7.61, 8.53, 9.42, 9.59, 10.3, 10.16, 10.91, 11.01, 11.41, 11.12, 9.92, 7.6, 4.55, 1.26, 0.45, -1.2, -1.86, -2.84, -2.86, -1.76, -1.3, -0.0, 1.66, 2.84, 2.68, 2.24, -0.0, -0.0, 1.9, 0.0, 0.0, 0.0, 1.79, -0.0, -0.0, -0.0, 1.41, -0.0, -0.0, -0.0, -0.0, -0.0, -0.0, -0.0, -0.0, -0.0, -0.0, -0.0, 1.55, 1.8, 3.6, 4.47, 4.4, 3.16, 5.21, 6.0, 1.7, -1.72, -2.99, -2.67, -2.8, -3.22, -4.0, -4.47, -3.39, -2.53, -0.98, 0.0, 2.0, 3.48, 4.6, 4.98, 4.47, 2.24, 0.0, 0.0, 2.68, 4.89, 3.9, 4.36, 6.07, 6.25, 6.0, 5.34, 5.34, 5.7, 5.7, 5.7, 6.34, 6.34, 6.33, 6.31, 6.31, 6.56, 6.31, 6.7, 6.97, 6.97, 7.33, 8.24, 9.08, 9.94, 10.41, 10.68, 11.08, 11.6, 11.82, 10.91, 9.92, 8.3, 6.6, 4.9, 3.39, 1.79, 0.45, -1.24, -2.22, -2.2, -1.32, -0.82, -0.0, -0.0, -0.0, -0.0, -0.0, -0.0, 1.34, 0.0, 0.0, 0.0, -0.0, -1.8, -1.8, -0.0, -0.0, -0.0, -0.0, -0.0, -0.0, -0.0, -0.0, -0.0, -0.0, 2.0, 1.41, 1.41, 2.0, 3.48, 3.48, 4.09, 3.16, 5.09, 5.09, 3.22, -0.0, -4.56, -3.47, -2.6, -1.84, -0.0, -0.0, -2.97, -4.0, -3.16, -2.95, -2.0, -0.98, 1.08, 2.68, 4.29, 4.57, 4.02, 2.8, 2.84, 3.79, 2.98, 2.2, 3.2, 5.0, 6.11, 5.43, 4.81, 4.81, 5.7, 5.7, 5.95, 6.34, 6.34, 6.33, 6.58, 6.31, 6.29, 6.96, 6.7, 6.97, 6.97, 7.33, 7.93, 8.82, 9.66, 10.51, 10.58, 11.08, 11.92, 12.33, 11.01, 10.12, 9.11, 8.33, 7.69, 6.79, 5.99, 3.82, 0.89, -1.0, -1.73, -2.2, -1.73, -2.47, -1.7, -0.0, -0.0, -0.0, -0.0, -0.0, 2.24, 0.0, -2.68, -2.53, -2.53, -2.53, -2.53, -2.53, -0.0, -0.0, -0.0, 2.21, 2.53, 2.53, 2.53, 1.8, 1.8, 2.0, 3.16, 3.16, 4.0, 4.0, 4.0, 3.39, 3.9, 4.92, 2.2, -0.0, -3.47, -3.93, -3.16, -0.96, -0.0, 1.99, 2.23, 1.79, -2.68, -3.13, -4.02, -4.02, -2.53, 1.83, 2.99, 3.35, 4.11, 4.0, 3.93, 2.95, 0.96, 0.89, 2.26, 4.46, 5.24, 4.58, 4.01, 4.01, 5.7, 5.7, 6.34, 6.34, 6.61, 6.71, 6.71, 6.31, 6.29, 6.96, 6.96, 6.96, 7.33, 7.33, 7.33, 9.4, 8.82, 9.66, 10.04, 10.91, 12.6, 13.51, 11.82, 11.2, 9.9, 10.0, 6.03, 8.42, 7.81, 3.43, 0.95, -0.0, -1.13, -1.76, -2.22, -2.86, -2.51, -1.2, -0.0, -0.0, -0.0, -0.0, -0.0, -0.0, -0.0, -2.21, -2.53, -2.21, -2.21, -0.0, -0.0, -0.0, -0.0, 2.21, 2.21, 3.13, 2.21, 2.21, 2.53, 2.53, 3.6, 3.6, 4.0, 3.39, 3.13, 3.13, 4.02, 4.47, 3.9, 2.2, 2.2, 2.23, 3.16, 2.95, 2.95, 3.48, 3.93, 3.16, 1.08, -0.0, -3.79, -4.34, -2.53, 0.0, 1.84, 2.64, 3.55, 3.11, 3.63, 2.68, 0.98, 0.96, 1.75, 2.99, 4.03, 3.55, 2.64, 2.64, 5.7, 5.7, 6.34, 6.61, 6.98, 6.71, 6.97, 6.97, 6.96, 6.7, 6.96, 6.96, 7.33, 7.61, 7.61, 7.93, 8.53, 8.5, 9.56, 10.29, 12.79, 12.11, 11.36, 10.91, 8.6, 7.27, 6.53, 4.78, 4.45, 2.23, 0.0, -0.0, -0.53, -1.13, -1.6, -2.23, -1.61, -1.61, -1.24, -0.57, -0.57, -0.0, -0.0, 0.61, 0.65, -0.0, -2.21, -2.21, -2.21, -0.0, -0.0, -0.0, -0.0, 2.21, 1.9, 1.9, 2.68, 1.34, 2.24, 3.13, 3.58, 3.58, 3.58, 3.2, 2.4, 3.13, 3.58, 4.92, 5.73, 6.45, 7.12, 8.56, 9.7, 8.9, 7.1, 5.81, 5.36, 4.82, -0.0, -0.89, -2.99, -4.98, -4.02, -1.98, 0.0, 0.81, 1.7, 2.53, 2.98, 3.16, 3.16, 0.96, 0.83, 1.75, 2.26, 2.82, 1.84, 1.84, 5.7, 5.7, 6.34, 6.33, 6.71, 6.71, 6.97, 6.97, 6.7, 6.96, 6.7, 7.6, 7.33, 7.33, 7.96, 8.56, 8.53, 7.93, 7.32, 9.06, 10.18, 9.5, 10.41, 9.02, 7.86, 6.28, 4.43, 3.49, 2.22, 0.53, 0.0, 0.45, -0.0, -0.53, -1.16, -1.61, -1.88, -1.2, -1.24, -0.57, -0.57, -0.0, -0.0, 0.53, 0.53, -0.0, -0.0, -2.21, -2.21, -0.0, -0.0, -0.0, -0.0, -0.0, 1.6, 2.8, 1.79, 1.34, 2.68, 2.68, 3.13, 3.13, 3.13, 3.13, 1.9, 2.8, 3.39, 4.34, 5.09, 6.57, 8.14, 9.8, 10.28, 8.45, 6.2, 5.29, 5.16, 4.47, 1.08, -0.0, -0.88, -3.93, -4.92, -3.47, -2.21, 0.0, 0.0, 1.8, 3.07, 4.19, 4.54, 3.16, 0.0, 0.0, 1.55, 1.52, 0.82, 0.82, 5.7, 5.95, 6.34, 6.33, 6.71, 6.97, 6.97, 6.97, 6.97, 6.96, 6.94, 7.33, 7.6, 7.96, 7.96, 8.87, 8.85, 9.13, 8.85, 8.85, 8.45, 8.65, 8.29, 8.15, 8.15, 7.73, 6.7, 4.07, 1.0, 0.0, -0.63, 0.0, -0.0, -0.0, -0.53, -1.16, -1.0, -1.2, -0.54, -0.57, -0.0, -0.0, -0.0, -0.0, 0.61, 0.57, -0.0, -2.21, -0.0, -0.0, -0.0, -0.0, -0.0, -0.0, 2.53, 3.6, 2.68, 1.58, 0.0, 0.0, 1.58, 1.58, 1.79, 1.79, 1.58, 2.4, 2.8, 3.39, 3.9, 5.21, 6.64, 6.26, 1.9, -1.9, 2.8, 3.83, 5.34, 4.85, 2.6, 0.79, -0.0, -1.83, -4.0, -4.47, -3.82, -1.98, 0.0, 1.08, 3.35, 5.09, 5.43, 4.84, 1.74, 0.0, 0.0, 0.82, 0.96, 0.96, 5.7, 5.7, 5.95, 6.61, 6.71, 6.97, 7.33, 7.33, 7.33, 7.61, 6.96, 7.33, 7.6, 7.96, 8.24, 8.58, 9.17, 9.17, 9.72, 10.06, 10.15, 9.63, 8.96, 7.9, 7.17, 7.81, 7.64, 5.86, 2.21, 0.0, 0.0, 0.0, -0.0, -0.0, -0.0, -0.65, -0.65, -0.65, -0.54, -0.0, -0.0, -0.0, -0.54, -0.61, -0.0, -0.0, -0.0, -1.8, -1.41, -0.0, -0.0, -0.0, -0.0, -0.0, 2.53, 3.6, 3.39, 3.13, 0.0, 0.0, 0.0, 1.58, 1.79, 1.34, 1.79, 2.24, 2.68, 3.13, 3.39, 4.02, 5.36, -0.0, -4.82, -4.02, 2.24, 1.58, 3.22, 4.15, 2.68, 0.85, -0.0, -0.0, -1.99, -3.16, -3.58, -2.53, 0.0, 0.0, 1.27, 0.98, 4.65, 4.43, 2.84, 1.2, 0.0, 0.81, 0.81, 0.81, 5.7, 5.7, 6.34, 6.34, 6.71, 6.97, 7.33, 7.33, 7.33, 7.33, 7.33, 7.33, 7.6, 7.6, 8.24, 8.58, 9.19, 9.48, 9.77, 10.3, 11.07, 11.22, 10.91, 9.3, 7.9, 7.44, 7.51, 6.79, 4.29, 1.58, 0.63, 0.45, 0.45, 0.63, -0.0, -0.0, -0.54, -0.54, -0.0, -0.0, -0.0, -0.0, -0.54, -1.16, -1.13, -1.13, -1.55, -1.55, -1.7, -0.0, -0.0, -0.0, -0.0, -0.0, 2.53, 2.53, 2.98, 3.9, 4.02, 0.0, 0.0, 0.0, 0.0, 1.34, 1.79, 2.24, 2.24, 3.13, 3.13, 4.47, 4.92, -3.79, -5.36, -4.02, -3.58, -2.68, 0.0, 2.53, 3.13, 1.26, -0.0, -0.0, -0.76, -0.76, -2.0, -3.13, -2.4, -1.58, -2.68, -3.39, 0.88, 1.7, 1.8, 1.9, 0.99, 0.79, 0.81, 0.81, 5.7, 5.7, 6.34, 6.34, 6.98, 6.71, 7.33, 7.33, 7.33, 7.33, 7.61, 7.33, 7.33, 7.6, 7.96, 8.87, 9.19, 9.48, 9.77, 10.06, 11.16, 11.62, 11.75, 11.41, 9.71, 8.43, 7.44, 6.52, 5.35, 3.43, 1.86, 1.2, 0.89, 0.89, 0.63, -0.0, -0.0, -0.0, -0.0, -0.0, -0.0, -0.0, -0.57, -1.2, -2.23, -2.23, -2.53, -1.88, -1.61, -1.13, -0.59, -0.0, -0.0, -0.0, 1.6, 2.53, 3.6, 3.35, 4.4, 3.58, 0.0, -1.2, 0.0, 1.34, 1.79, 2.24, 2.68, 2.68, 2.8, 4.82, 4.92, 2.8, -4.92, -5.73, -5.26, -4.02, -1.79, 0.0, 0.0, 1.34, -0.0, -0.0, -0.0, -0.0, -0.0, -2.23, -3.82, -3.58, -4.02, -4.15, -4.29, -0.73, 0.88, 2.23, 1.74, 1.98, 0.79, 0.79, 5.7, 5.7, 6.34, 6.34, 6.98, 6.98, 7.33, 7.33, 7.61, 7.33, 7.61, 7.61, 7.33, 7.6, 7.96, 8.56, 8.87, 9.17, 9.77, 9.77, 10.65, 11.16, 11.62, 11.75, 11.2, 10.0, 8.27, 6.79, 5.06, 4.37, 3.35, 2.4, 1.7, 1.79, 1.34, 1.2, -0.0, -0.0, -0.0, -0.0, -0.0, -0.0, -0.0, -1.26, -1.9, -2.21, -2.21, -1.88, -1.61, -1.84, -1.8, -0.57, -0.0, -0.0, 1.41, 2.53, 2.53, 3.6, 4.0, 4.8, 3.58, 3.13, -1.58, 1.34, 1.79, 2.24, 2.68, 3.13, 3.35, 4.0, 4.82, 4.92, 1.79, -4.38, -5.94, -6.2, -4.02, -1.26, 0.0, 0.0, 1.79, -0.0, -0.0, 0.88, -0.0, -1.08, -3.35, -3.58, -3.82, -3.6, -3.58, -1.66, 0.0, 1.83, 2.68, 2.48, 1.8, 1.8, 5.7, 5.7, 6.34, 6.34, 6.98, 6.98, 7.61, 7.33, 7.61, 7.61, 7.33, 7.61, 7.61, 7.96, 7.96, 8.56, 8.56, 9.46, 9.46, 10.06, 10.3, 10.88, 11.35, 11.62, 11.75, 11.08, 9.88, 7.35, 5.35, 4.37, 3.73, 3.72, 3.2, 3.39, 3.07, 2.24, 1.79, 1.34, 0.63, 0.63, 0.63, 0.95, 0.63, -0.0, -0.95, -1.58, -1.9, -1.88, -1.61, -1.84, -1.6, -1.8, -1.11, -0.0, -0.0, 1.13, -0.0, 2.53, 3.35, 4.4, 5.09, 2.24, 0.0, 1.79, 1.79, 2.24, 3.13, 3.58, 3.9, 4.34, 4.57, 5.26, 4.47, 2.24, -2.8, -4.98, -5.81, -2.98, 0.0, 0.0, 1.34, -0.0, -0.0, 0.87, -0.0, -0.0, -0.0, -2.24, -2.24, -2.24, -2.0, -2.4, 0.0, 0.96, 1.7, 1.83, 1.66, 1.66, 6.34, 6.34, 6.34, 6.34, 6.98, 6.98, 7.61, 7.61, 7.33, 7.95, 7.9, 7.61, 7.95, 8.24, 7.96, 8.87, 8.56, 9.46, 9.46, 9.72, 10.01, 10.59, 11.16, 11.35, 11.88, 11.75, 10.68, 9.38, 6.52, 4.43, 3.48, 3.35, 3.6, 3.7, 3.39, 3.07, 2.17, 1.79, 1.34, 0.89, 0.89, 1.34, 1.34, 0.63, -0.6, -1.79, -2.6, -1.88, -1.61, -1.61, -1.84, -1.84, -1.8, -1.11, -0.0, -0.0, -0.0, 1.8, 2.84, 4.4, 4.82, 3.39, 1.34, -1.79, 1.34, 2.68, 3.58, 4.02, 4.47, 4.92, 5.29, 5.73, 5.73, 4.92, 2.68, -0.0, -3.79, -4.38, -2.23, 0.0, 0.0, -0.63, -0.0, 0.99, 0.87, 0.88, 1.66, -0.0, -0.0, -0.0, -0.0, -1.6, -0.96, 0.0, 0.72, 1.6, 1.7, 1.7, 6.34, 6.34, 6.34, 6.34, 6.98, 6.98, 7.61, 7.61, 7.61, 8.24, 8.24, 7.93, 8.24, 7.95, 8.24, 8.58, 8.87, 9.17, 9.46, 9.72, 10.01, 10.23, 10.59, 10.8, 11.07, 11.07, 10.96, 10.13, 8.0, 5.06, 3.48, 3.14, 3.6, 3.7, 3.7, 3.39, 2.91, 2.17, 1.79, 1.34, 1.34, 1.34, 1.34, 2.24, 0.0, -1.26, -2.24, -2.21, -1.88, -1.16, -1.16, -1.61, -1.84, -1.8, -1.11, -0.51, -0.0, 1.7, 2.68, 4.4, 4.34, 2.8, -0.0, -0.0, -0.0, 3.13, 3.9, 3.6, 4.0, 4.82, 5.26, 5.73, 6.2, 5.73, 4.34, 0.88, -0.88, -3.35, -3.72, -2.23, -1.4, -0.89, -0.0, -0.0, -0.0, -0.0, -0.0, -1.05, -0.96, -0.0, -0.0, -0.0, -2.68, -1.6, 0.0, 0.78, 0.72, 0.72, 6.34, 6.34, 6.34, 6.34, 6.98, 6.98, 7.32, 7.61, 7.61, 8.24, 8.24, 8.24, 7.93, 8.24, 8.24, 8.58, 8.58, 8.87, 9.46, 9.72, 10.01, 10.23, 10.23, 10.51, 10.51, 10.7, 10.96, 9.86, 8.08, 5.65, 3.79, 3.14, 3.2, 3.7, 3.88, 3.7, 3.2, 2.91, 2.17, 2.12, 1.7, 1.79, 1.79, 1.79, 1.34, 1.2, -1.79, -1.88, -1.4, -1.2, -1.0, -1.16, -1.84, -1.84, -1.6, -1.8, -0.59, -0.0, 1.99, 2.0, 1.98, -0.0, -0.0, -0.0, 2.4, 3.13, 3.58, 3.48, 2.68, 3.93, 4.6, 4.98, 5.73, 5.29, 4.34, 1.9, -0.0, -1.08, -3.13, -2.95, -3.16, -1.26, -1.34, -1.24, -1.61, -2.3, -3.07, -3.07, -2.41, -0.76, 0.87, 0.87, -1.79, -2.6, -0.74, 0.0, 0.74, 0.74, 6.34, 6.34, 6.34, 6.34, 6.98, 6.98, 7.32, 7.61, 7.61, 8.24, 8.24, 8.24, 8.24, 7.93, 8.24, 8.24, 8.87, 8.87, 9.17, 9.72, 9.72, 10.01, 10.23, 10.51, 10.15, 10.51, 10.51, 9.86, 8.55, 6.23, 4.71, 3.43, 3.35, 3.35, 3.88, 3.88, 3.88, 3.2, 2.91, 2.4, 2.0, 2.12, 1.79, 1.79, 2.12, 2.24, -0.0, -1.2, -1.2, -0.65, -1.0, -1.16, -1.16, -1.84, -1.84, -1.6, -1.8, -0.57, -0.0, -0.0, -0.0, -0.0, -0.0, 2.21, 2.8, 3.58, 4.02, 4.0, 1.7, 3.47, 2.76, 3.93, 4.92, 4.47, 3.2, 1.79, -2.0, -0.96, -2.53, -3.72, -3.16, -2.53, -2.12, -2.6, -3.07, -2.79, -2.79, -3.58, -3.2, -1.74, -0.0, 0.99, -0.0, -2.84, -1.45, -0.71, 0.0, 0.0, 6.08, 6.08, 6.34, 6.34, 6.7, 6.98, 7.32, 7.61, 7.61, 7.93, 8.24, 8.24, 8.24, 7.93, 7.93, 8.24, 8.56, 8.87, 9.17, 9.17, 9.72, 9.72, 10.01, 10.51, 10.51, 10.51, 10.15, 9.3, 10.01, 5.95, 4.74, 4.07, 3.43, 3.88, 4.27, 4.0, 4.0, 3.72, 3.2, 2.68, 2.91, 2.4, 2.17, 1.79, 1.2, 0.6, -0.0, -0.54, -0.54, -0.65, -1.0, -1.16, -1.16, -1.16, -1.16, -1.84, -1.84, -1.8, -1.27, -0.0, -0.0, -0.0, 1.2, 2.4, 3.13, 4.02, 4.47, 5.36, 4.92, 3.16, 2.53, 3.39, 5.36, 4.47, -2.24, -4.34, -3.93, -2.0, -2.84, -3.58, -3.84, -3.16, -2.53, -2.6, -3.13, -3.07, -2.4, -1.86, -3.35, -2.53, -0.99, 0.76, 0.99, -1.9, -2.35, -1.55, -0.79, -0.79, 6.08, 6.08, 6.34, 6.34, 6.7, 6.98, 7.32, 7.32, 7.61, 7.93, 8.24, 8.24, 8.24, 8.24, 7.93, 7.93, 8.24, 8.53, 8.85, 9.17, 9.46, 9.72, 10.01, 10.01, 10.51, 10.51, 9.94, 9.3, 7.81, 8.22, 4.45, 3.22, 3.16, 3.64, 4.0, 4.55, 4.0, 4.0, 3.72, 3.6, 3.07, 2.91, 2.4, 2.12, 1.34, 0.63, -0.0, -0.0, -0.54, -0.65, -0.65, -1.0, -1.16, -1.16, -1.16, -1.16, -1.84, -1.84, -1.33, -0.61, -0.0, -0.0, 2.21, 2.4, 3.13, 3.58, 4.47, 4.92, 5.81, 4.92, 2.97, 3.58, 4.82, 4.02, -2.68, -5.26, -4.34, -3.35, -3.6, -3.58, -4.0, -3.48, -2.41, -2.53, -2.6, -2.24, -1.7, -0.8, -2.53, -3.16, -2.23, -0.0, 0.76, -1.34, -2.98, -2.51, -1.45, -1.45, 6.08, 6.08, 6.34, 6.34, 6.7, 6.7, 6.98, 7.32, 7.61, 7.93, 8.24, 8.24, 8.24, 8.24, 7.93, 8.22, 8.22, 8.82, 8.53, 9.13, 9.46, 9.46, 9.72, 9.66, 9.66, 10.23, 9.94, 9.02, 8.19, 6.59, 3.84, 2.86, 2.86, 3.48, 4.29, 4.29, 4.29, 3.73, 4.0, 3.72, 3.6, 3.07, 2.91, 2.6, 1.7, 0.89, -0.0, -0.0, -0.57, -0.54, -0.65, -1.2, -1.2, -1.4, -1.16, -1.16, -1.61, -1.61, -1.61, -0.53, -0.0, 2.21, 2.21, 3.13, 2.68, 3.13, 3.58, 4.02, 5.36, 5.09, 4.0, 4.92, 5.51, 4.57, 1.79, -4.02, -4.02, -4.02, -3.13, -3.13, -2.6, -1.8, -1.8, -1.98, -2.21, -1.79, -0.89, -0.0, -0.99, -1.8, -1.8, -0.98, -0.0, -0.0, -1.8, -3.0, -2.12, -2.12, 6.08, 6.08, 6.34, 6.34, 6.7, 6.7, 6.98, 7.32, 7.61, 7.93, 7.93, 8.24, 7.93, 7.93, 7.93, 8.24, 8.82, 8.82, 8.82, 8.85, 9.13, 9.13, 9.13, 9.66, 10.01, 10.01, 9.66, 9.02, 8.19, 6.92, 4.45, 2.6, 2.58, 3.16, 4.07, 4.65, 4.65, 4.07, 3.73, 3.64, 3.35, 3.2, 2.91, 2.49, 2.6, 1.7, 0.45, -0.0, -0.0, -0.71, -0.54, -0.65, -1.2, -1.2, -1.4, -1.61, -1.61, -1.61, -1.61, -0.65, 0.54, 1.6, 2.21, 3.13, 2.21, 2.53, 2.97, 3.58, 4.02, 4.47, 4.38, 5.36, 5.51, 5.51, 4.34, 1.79, -2.8, -3.35, -3.35, -2.98, -2.21, -0.99, 0.0, -0.85, -1.0, 0.0, 0.0, 1.79, -1.4, -1.98, -1.8, -0.98, -0.0, -0.0, 0.0, -2.4, -3.0, -3.0, 6.08, 6.08, 6.08, 6.34, 6.7, 6.7, 6.98, 7.32, 7.32, 7.61, 7.93, 7.93, 7.93, 7.93, 7.93, 7.93, 8.53, 8.82, 8.82, 8.82, 8.85, 8.85, 9.13, 9.42, 10.01, 10.01, 9.66, 9.37, 8.15, 6.92, 5.06, 3.49, 2.84, 3.16, 4.07, 4.37, 4.71, 4.65, 4.07, 3.73, 3.43, 3.35, 3.07, 2.91, 2.68, 2.0, 1.2, 0.45, -0.0, -0.57, -0.71, -0.54, -1.0, -1.2, -1.2, -1.16, -1.61, -1.61, -1.16, -0.65, -0.0, 1.24, 3.2, 1.9, 1.9, 2.21, 3.39, 4.02, 4.02, 4.02, 5.36, 4.47, 6.26, 5.73, 5.51, 4.82, 2.8, 0.0, -3.35, -2.84, -1.98, -0.99, 0.0, 0.0, 0.0, 0.0, 1.34, -0.0, -1.2, -1.4, -1.98, -2.23, -1.13, -0.0, 0.45, -1.8, -3.33, -3.33, 6.08, 6.08, 6.08, 6.34, 6.98, 6.98, 6.98, 7.32, 7.32, 7.61, 7.93, 7.93, 7.93, 7.93, 7.93, 7.93, 8.53, 8.82, 8.82, 8.82, 8.82, 8.85, 8.85, 9.08, 9.13, 10.01, 9.66, 9.37, 7.86, 6.64, 5.69, 4.43, 3.16, 3.43, 3.73, 4.37, 4.94, 4.71, 4.37, 4.07, 3.48, 3.43, 2.79, 3.93, 1.9, 2.5, 1.86, 0.89, -0.0, -0.0, -0.57, -0.71, -0.71, -1.0, -1.2, -1.4, -1.16, -1.16, -1.16, -0.65, -0.0, 0.57, 2.53, 1.4, 1.2, 3.13, 3.13, 3.58, 3.58, 4.02, 4.47, 4.47, 5.81, 6.26, 5.51, 4.6, 4.0, 2.24, -3.13, -3.6, -2.41, -0.87, 0.0, 0.0, 0.0, 1.34, 1.34, -0.0, -0.0, -1.2, -1.98, -2.23, -1.98, -1.2, 1.34, -0.85, -2.41, -2.98, 5.7, 5.7, 6.08, 6.63, 6.98, 6.98, 6.98, 7.6, 7.32, 7.61, 7.93, 7.93, 7.93, 7.93, 7.93, 7.93, 8.24, 8.53, 8.82, 8.82, 8.82, 8.53, 8.53, 8.82, 9.13, 9.13, 9.42, 9.08, 8.19, 6.95, 5.71, 4.45, 3.79, 3.73, 4.07, 4.37, 4.94, 4.94, 4.71, 3.79, 3.73, 3.16, 3.09, 3.93, 1.58, 2.21, 1.88, 1.58, 0.89, -0.0, -0.0, -0.57, -0.57, -1.24, -1.2, -1.2, -1.16, -1.16, -1.16, -0.61, -0.0, 0.57, 2.21, 1.58, 1.58, 3.13, 3.58, 3.13, 3.13, 3.13, 4.02, 4.92, 5.36, 4.92, 4.4, 2.95, 2.0, 0.0, -3.13, -3.95, -2.84, -0.87, 0.0, 0.0, 0.0, 0.89, 0.89, 1.79, -0.0, -1.58, -1.4, -2.53, -1.98, -1.2, 1.34, -1.0, -1.9, -2.41, 5.7, 5.7, 6.35, 6.35, 6.63, 6.98, 6.98, 7.27, 7.32, 7.61, 7.93, 7.93, 7.93, 7.93, 7.93, 7.93, 8.24, 8.53, 8.82, 8.82, 8.82, 8.82, 8.53, 8.82, 8.82, 8.81, 9.08, 8.82, 8.19, 6.95, 5.71, 4.47, 4.43, 4.65, 4.65, 4.84, 5.29, 5.29, 5.29, 4.71, 3.79, 3.2, 3.48, 2.53, 2.95, 1.88, 1.6, 1.2, 0.6, 0.0, -0.0, -0.6, -0.8, -0.57, -1.24, -1.2, -1.2, -1.16, -1.33, -1.16, -0.0, 0.71, 1.26, 2.21, 2.68, 3.13, 2.4, 2.8, 2.8, 3.13, 4.02, 4.34, 5.51, 5.36, 4.47, 0.0, 0.0, -1.6, -4.02, -4.02, -3.47, -1.74, -0.85, -1.0, 0.0, 0.0, 0.0, 1.79, 1.34, 1.79, -1.58, -2.8, -2.98, -2.4, -1.79, -1.58, -1.26, -1.9, 5.7, 5.7, 6.35, 6.35, 6.63, 6.98, 6.98, 6.98, 7.6, 7.6, 7.61, 7.93, 7.93, 7.93, 7.93, 7.93, 7.93, 8.24, 8.53, 8.82, 8.82, 8.82, 8.82, 8.53, 8.5, 8.5, 8.82, 8.5, 7.9, 6.67, 5.44, 4.75, 4.45, 4.43, 4.94, 4.94, 5.29, 5.59, 5.35, 5.01, 4.43, 4.11, 3.49, 3.48, 2.84, 2.95, 0.53, 0.0, 0.57, 0.45, -0.0, -0.0, -0.6, -0.8, -0.57, -0.54, -0.65, -1.16, -1.16, -1.16, -0.61, -0.0, 1.6, 2.21, -0.0, 2.21, 1.9, 2.53, 2.97, 3.58, 3.9, 4.4, 5.64, 5.36, 4.02, -2.84, -2.95, -3.16, -3.82, -4.02, -2.68, -2.4, -1.9, -1.0, 0.0, 1.0, 1.2, 1.58, 1.79, 1.34, -1.79, -2.68, -3.13, -2.68, -1.79, -1.58, -1.58, -1.58, 5.98, 5.98, 6.35, 6.35, 6.35, 6.98, 6.98, 6.98, 7.6, 7.6, 7.6, 8.22, 8.22, 8.22, 7.93, 7.93, 7.93, 8.24, 8.24, 8.82, 8.82, 8.82, 8.82, 8.53, 8.5, 8.22, 8.22, 8.22, 7.9, 6.97, 5.44, 4.47, 4.47, 4.74, 5.01, 5.59, 5.59, 5.59, 5.59, 5.59, 5.01, 4.12, 3.83, 4.11, 4.07, 2.15, 0.0, 0.0, 0.0, 0.0, 0.0, -0.0, -0.0, -0.6, -0.57, -0.71, -0.65, -0.53, -1.16, -1.16, -0.61, -0.0, 0.65, 2.53, -0.0, 1.9, 2.68, 3.13, 3.13, 3.58, 3.9, 4.4, 5.6, 5.26, 4.92, -0.0, -4.47, -4.4, -3.72, -3.35, -2.0, -1.26, 0.0, 0.0, 1.0, 2.21, 2.8, 1.9, 1.58, 1.58, 0.0, -2.24, -3.13, -3.13, 0.0, 0.0, 0.0, 0.0, 5.98, 5.98, 6.35, 6.35, 6.35, 6.63, 6.98, 6.98, 6.98, 7.6, 7.6, 8.22, 8.22, 8.22, 8.22, 7.93, 7.93, 7.93, 8.24, 8.82, 8.82, 8.82, 8.82, 8.53, 7.93, 8.22, 7.9, 7.9, 7.6, 6.97, 5.72, 4.47, 4.47, 5.06, 5.37, 5.65, 5.88, 6.23, 6.23, 5.65, 5.06, 4.74, 4.12, 3.83, 4.65, 3.7, 1.49, 0.0, 0.0, 0.0, 0.45, 0.0, -0.0, -0.0, -0.6, -0.57, -0.54, -0.65, -1.0, -1.16, -1.16, -0.53, -0.0, 1.8, 2.21, 2.21, 3.13, 3.13, 3.13, 3.58, 3.9, 4.4, 4.98, 5.51, 5.36, 3.35, -0.0, -3.13, -3.35, -2.53, -1.4, 0.0, 0.0, 0.85, 0.99, 2.21, 2.8, 2.8, 2.68, 2.68, 1.79, 1.79, -2.24, -1.9, 0.0, 0.0, 0.0, 0.0, 5.98, 5.98, 6.35, 6.35, 6.35, 6.35, 6.98, 6.98, 6.98, 7.6, 7.6, 7.6, 8.22, 8.22, 8.22, 7.93, 7.93, 7.93, 7.93, 8.53, 8.82, 8.82, 8.53, 8.53, 8.24, 8.22, 7.9, 7.86, 7.59, 6.35, 5.45, 4.73, 4.47, 5.08, 5.69, 6.23, 6.23, 6.57, 6.57, 6.23, 5.65, 5.06, 4.43, 4.12, 4.11, 4.37, 3.07, 1.24, 0.57, 0.0, 0.0, 0.45, 0.0, -0.0, -0.0, -0.57, -0.54, -0.54, -0.65, -1.16, -1.4, -1.2, -0.0, 0.54, 2.53, 2.21, 3.13, 2.68, 3.13, 3.39, 4.4, 4.0, 4.98, 5.51, 5.81, 5.51, 4.6, 3.39, 1.79, 1.34, 1.79, 0.0, 0.0, 0.0, 0.99, 1.0, 2.24, 3.13, 3.13, 2.68, 2.68, 0.0, -1.9, 0.0, 0.0, 0.0, 0.0, 0.0, 5.98, 5.98, 6.35, 6.35, 6.35, 6.35, 6.63, 6.98, 6.98, 7.6, 7.6, 7.6, 8.22, 8.22, 8.22, 7.93, 7.93, 7.93, 7.93, 7.93, 8.53, 8.53, 8.53, 8.53, 8.24, 7.93, 7.9, 7.6, 6.97, 6.35, 5.45, 5.1, 4.73, 5.1, 5.69, 5.95, 6.28, 6.52, 6.52, 6.28, 5.69, 5.06, 4.45, 4.12, 4.12, 4.11, 3.43, 2.21, 1.24, 0.8, 0.6, 0.0, 0.45, 0.45, -0.0, -0.0, -0.0, -0.54, -0.54, -1.2, -1.2, -1.2, -0.54, -0.0, 1.58, 3.58, 3.13, 2.68, 3.58, 3.9, 3.9, 4.02, 4.47, 5.36, 5.81, 5.73, 5.73, 5.73, 4.82, 4.0, 4.0, 3.13, 0.0, -2.21, -2.4, -1.34, 0.89, 2.0, 2.4, -0.0, 2.24, 1.9, 0.0, 0.0, 0.0, 0.0, 0.0, 0.0, 5.98, 5.98, 5.98, 6.35, 6.35, 6.35, 6.35, 6.98, 6.98, 6.98, 7.6, 7.6, 7.9, 8.22, 8.22, 7.93, 7.93, 7.93, 7.93, 7.93, 8.24, 8.53, 8.53, 7.95, 8.24, 7.93, 7.93, 7.6, 6.97, 6.35, 5.72, 5.1, 5.1, 5.1, 5.71, 6.28, 6.28, 6.87, 6.87, 6.28, 5.98, 5.06, 4.45, 4.45, 4.12, 3.83, 3.49, 2.84, 1.88, 1.24, 0.6, 0.95, 0.0, 0.0, -0.0, -0.0, -0.0, -0.0, -0.54, -0.54, -1.2, -1.2, -0.71, -0.0, 1.86, 3.58, 3.13, 3.13, 3.58, 3.58, 3.58, 4.02, 4.47, 4.92, 4.92, 4.92, 5.36, 5.81, 5.73, 4.98, 4.98, 3.39, -3.39, -4.85, -4.02, -2.98, -1.2, -0.0, -0.0, 1.34, 1.58, 1.4, 1.13, 1.13, 1.13, 1.13, 1.13, 1.13, 5.72, 5.72, 5.98, 6.35, 6.35, 6.35, 6.35, 6.98, 6.98, 6.98, 7.6, 7.6, 7.6, 8.22, 8.22, 7.93, 7.93, 7.93, 7.93, 7.93, 7.93, 8.24, 8.24, 8.24, 7.95, 8.24, 7.93, 7.6, 6.69, 6.08, 5.72, 5.09, 5.1, 5.1, 5.71, 6.32, 6.59, 6.59, 6.87, 6.28, 5.95, 5.65, 5.06, 4.45, 4.43, 3.83, 3.79, 3.48, 2.84, 1.61, 1.24, 0.8, 0.95, 0.45, -0.0, -0.0, -0.0, -0.0, -0.0, -0.71, -0.54, -0.54, -0.71, -0.0, 1.24, 3.58, 3.13, 3.13, 3.58, 3.58, 3.58, 3.82, 4.02, 4.47, 4.47, 4.47, 4.47, 4.92, 4.82, 5.26, 5.26, 3.13, -3.35, -5.29, -4.38, -2.84, -1.6, -0.0, 1.34, 0.0, 0.0, 1.2, 1.6, 1.27, 0.98, 0.98, 0.98, 0.98, 5.72, 5.72, 5.72, 5.98, 6.35, 6.35, 6.35, 6.35, 6.98, 6.98, 7.6, 7.6, 7.6, 8.22, 7.93, 7.93, 7.93, 7.93, 7.93, 7.93, 8.24, 8.24, 8.24, 8.24, 8.24, 7.95, 7.61, 7.32, 6.98, 6.08, 5.72, 5.09, 5.36, 5.1, 5.71, 6.32, 6.92, 6.92, 6.92, 6.59, 6.28, 5.69, 5.65, 5.06, 4.45, 4.12, 4.11, 3.49, 2.86, 2.23, 1.61, 1.24, 0.8, 0.63, -0.0, -0.0, -0.0, -0.0, -0.0, -0.0, -0.71, -0.71, -0.71, -0.0, 1.24, 2.21, 2.4, 2.68, 2.8, 3.39, 3.39, 3.58, 4.02, 4.02, 4.02, 4.02, 4.02, 4.47, 4.47, 4.92, 4.47, 3.39, 0.0, -4.0, -4.02, -3.22, -0.0, -0.0, 0.0, -1.0, 0.0, 0.0, 1.9, 1.6, 1.8, 0.98, 0.98, 0.98, 5.72, 5.72, 5.72, 5.98, 6.35, 6.35, 6.35, 6.35, 6.98, 6.98, 7.27, 7.6, 7.32, 7.61, 7.93, 7.93, 7.93, 7.93, 7.93, 7.93, 7.95, 8.24, 7.96, 7.96, 8.24, 7.95, 7.61, 7.61, 6.7, 6.35, 5.72, 5.34, 5.09, 5.36, 5.72, 6.32, 6.92, 7.51, 7.51, 6.92, 6.32, 6.28, 5.69, 5.37, 4.75, 4.43, 3.83, 3.49, 3.48, 3.16, 2.23, 1.61, 1.24, 0.89, 0.45, -0.0, -0.0, -0.0, -0.0, -0.0, -0.0, -0.71, -0.71, -0.0, 0.71, 2.53, 2.8, 2.68, 3.13, 2.98, 3.35, 2.98, 3.39, 4.02, 4.02, 4.02, 4.02, 4.02, 4.02, 4.47, 3.82, 3.2, -0.0, -3.13, -4.34, -1.8, -0.87, -0.0, 1.79, 0.0, -1.2, -1.0, 0.0, 1.4, 1.27, 0.98, 0.98, 0.98, 5.72, 5.72, 5.72, 5.98, 6.35, 6.35, 6.35, 6.35, 6.98, 6.98, 6.98, 7.32, 7.32, 7.61, 7.93, 7.93, 7.93, 7.61, 7.61, 7.61, 7.61, 7.6, 7.96, 7.96, 7.96, 7.61, 7.61, 6.97, 6.7, 6.35, 5.72, 5.72, 5.45, 5.72, 5.72, 6.04, 6.92, 7.51, 7.51, 6.92, 6.32, 6.28, 5.69, 5.08, 5.06, 4.45, 4.12, 3.83, 3.49, 3.15, 2.84, 2.23, 1.61, 0.95, 0.45, 0.45, -0.0, 0.63, -0.0, -0.0, -0.0, -0.0, -0.57, -0.0, 0.57, 1.58, 3.39, 2.97, 3.13, 3.13, 2.8, 2.53, 1.98, 2.21, 4.02, 4.02, 4.02, 4.02, 4.02, 4.02, 3.39, 2.8, -0.0, -3.35, -3.22, -2.41, -0.98, -0.0, 1.2, 1.79, 0.0, -1.2, 0.0, 0.0, 1.13, 0.0, 0.0, 0.0, 5.72, 5.72, 5.72, 5.98, 5.98, 6.35, 6.35, 6.35, 6.35, 6.98, 6.7, 6.98, 7.32, 7.61, 7.61, 7.93, 7.61, 7.61, 7.61, 7.61, 7.33, 7.6, 7.96, 7.96, 7.96, 7.61, 7.61, 6.71, 6.34, 6.35, 5.72, 5.72, 5.72, 5.72, 5.72, 6.04, 6.64, 7.23, 7.51, 6.92, 6.32, 5.71, 5.69, 5.08, 5.37, 4.75, 4.12, 4.12, 3.49, 3.49, 2.86, 2.23, 2.23, 1.26, 0.89, 0.89, 0.89, 0.89, 0.63, -0.0, -0.0, -0.0, -0.0, -0.0, -0.0, 1.24, 2.53, 2.98, 3.39, 4.02, 3.58, 2.8, 1.4, 1.2, 3.58, 4.02, 4.47, 4.47, 3.9, 3.58, 3.58, 2.8, -0.0, -4.82, -3.2, -2.53, -1.8, -0.87, -0.0, 1.58, 1.34, -1.0, -1.4, 0.0, 0.0, 0.0, 0.0, 0.0, 5.72, 5.72, 5.72, 5.98, 5.98, 6.35, 6.35, 6.35, 6.35, 6.98, 6.7, 6.98, 7.32, 7.61, 7.61, 7.61, 7.61, 7.61, 7.61, 7.61, 7.6, 7.33, 7.96, 7.96, 7.6, 7.61, 7.33, 6.98, 6.34, 5.98, 5.72, 5.72, 5.72, 5.72, 5.72, 6.34, 6.64, 6.95, 7.25, 6.92, 6.32, 5.71, 5.41, 5.38, 5.08, 4.78, 4.75, 4.12, 4.12, 3.49, 3.2, 2.86, 1.88, 1.58, 1.2, 0.89, 0.89, 0.89, 0.89, 0.63, -0.0, -0.0, -0.0, -0.0, -0.0, 0.57, 1.49, 2.5, 4.34, 4.34, 4.47, 3.39, 2.68, 2.24, 2.4, 3.9, 4.34, 4.34, 3.35, 3.39, 3.13, 2.8, -4.82, -5.36, -4.02, -3.2, -2.41, -1.8, -0.0, -0.0, -1.34, -1.79, -1.9, 0.0, 0.0, 0.0, 0.0, 0.0, 5.72, 5.72, 5.72, 5.98, 5.98, 5.98, 6.35, 6.35, 6.35, 6.63, 6.7, 6.98, 7.32, 7.32, 7.61, 7.61, 7.61, 7.61, 7.61, 6.96, 6.94, 7.59, 7.59, 7.96, 7.61, 7.61, 6.97, 6.98, 6.08, 5.98, 5.72, 5.72, 5.72, 5.45, 5.72, 6.34, 6.95, 6.95, 6.95, 6.92, 6.32, 5.71, 5.71, 5.1, 5.1, 5.08, 4.75, 4.47, 4.12, 4.12, 3.49, 3.2, 2.23, 1.9, 1.49, 1.2, 1.34, 1.34, 0.89, 0.89, -0.0, -0.0, -0.0, -0.0, -0.0, -0.0, 1.24, 2.4, 4.34, 4.47, 4.47, 4.34, 3.39, 3.13, 3.13, 3.35, 4.0, 4.4, 3.35, 2.8, 2.68, 2.53, -3.93, -5.81, -4.92, -3.9, -3.16, -2.0, -1.8, -2.21, -2.24, -2.24, -1.58, -1.2, 0.0, 0.0, 0.0, 0.0, 5.06, 5.06, 5.7, 5.7, 5.7, 5.7, 5.98, 6.35, 6.35, 6.34, 6.7, 6.7, 6.98, 7.32, 7.61, 7.61, 7.61, 7.33, 7.33, 6.94, 7.19, 7.59, 7.33, 7.6, 7.61, 7.61, 7.33, 6.7, 6.08, 5.72, 5.72, 5.72, 5.72, 5.72, 5.72, 6.34, 6.95, 6.95, 6.95, 6.64, 6.04, 5.72, 5.44, 5.38, 5.38, 5.1, 5.08, 4.75, 4.75, 4.12, 4.12, 3.49, 2.84, 2.21, 2.23, 1.7, 1.7, 1.2, 1.34, 0.89, 0.45, -0.0, -0.0, -0.0, -0.0, -0.0, 0.8, 1.86, 2.91, 4.47, 4.47, 4.02, 3.9, 3.58, 3.58, 4.0, 4.57, 4.57, 4.34, 3.13, 2.68, -0.0, -1.99, -4.98, -4.92, -4.47, -3.6, -3.22, -2.41, -2.98, -2.68, -2.54, -2.0, -1.2, -1.13, -0.98, -0.98, -0.98, 5.06, 5.06, 5.7, 5.7, 5.7, 5.7, 5.7, 5.7, 6.08, 6.34, 6.34, 6.7, 6.98, 6.98, 7.61, 7.61, 7.61, 7.33, 6.96, 6.94, 6.92, 7.59, 7.33, 7.61, 7.61, 7.61, 7.33, 6.98, 6.34, 6.35, 5.72, 5.72, 5.72, 5.72, 6.01, 6.34, 6.64, 6.95, 6.95, 6.34, 6.04, 5.72, 5.72, 5.1, 5.38, 5.1, 5.1, 5.08, 4.75, 4.75, 3.84, 3.49, 2.86, 2.79, 2.5, 2.4, 1.86, 1.7, 1.6, 1.2, 0.89, 0.45, -0.0, -0.6, -0.8, -0.0, 0.8, 1.58, 2.4, 4.34, 4.47, 4.02, 4.02, 4.02, 3.82, 3.72, 3.93, 4.98, 4.82, 4.02, 2.53, 1.19, -0.0, -3.63, -4.82, -4.47, -3.58, -4.15, -3.58, -2.98, -2.68, -2.54, -1.9, -1.4, -1.13, -0.98, -0.98, -0.98, 5.06, 5.06, 5.29, 5.45, 5.7, 5.7, 5.7, 5.7, 5.7, 6.34, 6.34, 6.7, 6.98, 6.98, 6.98, 7.32, 7.61, 7.24, 6.94, 6.92, 6.92, 7.59, 7.33, 7.61, 7.33, 7.33, 7.33, 6.98, 6.7, 6.35, 6.08, 5.72, 5.72, 5.72, 6.01, 6.34, 6.64, 6.95, 6.95, 6.34, 6.34, 5.72, 5.72, 5.1, 5.38, 5.1, 5.1, 5.38, 5.08, 4.47, 4.45, 4.11, 3.48, 2.84, 2.79, 2.5, 2.23, 1.86, 1.49, 1.2, 0.89, 0.45, -0.0, -0.6, -0.6, -0.0, -0.0, 1.26, 1.86, 3.82, 3.9, 3.9, 3.9, 4.02, 4.02, 3.35, 3.35, 4.0, 4.82, 3.9, 3.6, 2.23, -0.0, -3.79, -4.98, -4.92, -4.47, -4.38, -3.83, -3.6, -2.97, -2.68, -2.4, -2.53, -1.13, -0.98, -0.98, -0.98, 5.06, 5.06, 5.04, 5.04, 5.69, 5.95, 5.7, 5.7, 5.7, 6.34, 6.34, 6.34, 6.98, 6.98, 6.98, 6.98, 6.98, 6.96, 6.94, 6.92, 6.92, 7.59, 7.33, 7.33, 7.33, 7.33, 7.33, 6.98, 6.7, 6.98, 6.35, 6.35, 6.06, 6.34, 6.34, 6.34, 6.95, 6.95, 6.95, 6.64, 6.34, 6.01, 5.72, 5.1, 5.1, 5.1, 5.1, 5.1, 5.08, 5.08, 4.75, 4.12, 3.79, 3.43, 3.14, 2.5, 2.5, 1.9, 1.86, 1.26, 1.2, 0.89, 0.45, -0.63, -0.95, -0.95, -0.0, 0.95, 1.6, 2.12, 2.91, 4.34, 4.34, 3.9, 4.47, 4.02, 3.9, 3.82, 4.47, 4.47, 4.47, 3.82, -0.0, -2.95, -5.09, -5.36, -4.82, -4.47, -4.66, -4.15, -3.2, -3.13, -2.68, -2.53, -1.98, -1.27, -1.27, -1.27, 4.63, 4.63, 5.29, 5.04, 5.26, 5.69, 5.69, 5.69, 5.95, 5.95, 6.34, 6.34, 6.61, 6.98, 6.98, 6.98, 6.71, 6.7, 6.94, 6.92, 6.92, 7.59, 7.33, 7.33, 7.33, 6.97, 6.98, 6.98, 6.98, 6.98, 6.97, 6.35, 6.34, 6.34, 6.64, 6.95, 7.23, 7.23, 7.23, 6.95, 6.34, 6.01, 5.72, 5.72, 5.1, 5.38, 5.1, 5.1, 5.38, 5.08, 5.06, 4.43, 4.11, 3.48, 3.43, 2.79, 2.21, 2.5, 1.9, 1.86, 1.6, 0.89, 0.45, 0.89, -0.95, -0.63, -0.0, 0.63, 1.2, 1.7, 2.17, 3.9, 3.6, 4.66, 4.34, 4.38, 4.47, 3.82, 3.9, 4.34, 4.47, 3.58, 1.13, -2.48, -5.26, -5.36, -4.82, -4.92, -4.92, -4.41, -3.95, -3.58, -3.58, -2.6, -1.74, -0.87, -0.87, -0.87, 4.63, 4.63, 4.63, 5.04, 5.04, 5.69, 5.69, 5.69, 5.69, 5.69, 6.08, 6.34, 6.33, 6.33, 6.33, 6.33, 6.33, 6.31, 6.96, 6.94, 6.94, 6.94, 7.6, 7.33, 6.97, 6.98, 6.98, 6.98, 7.3, 7.59, 6.97, 6.67, 6.67, 6.95, 6.95, 6.95, 7.55, 7.55, 7.55, 6.95, 6.34, 6.34, 5.72, 5.72, 5.44, 5.38, 5.1, 5.1, 5.38, 5.08, 4.75, 4.43, 4.11, 3.79, 3.16, 2.84, 2.23, 2.53, 1.88, 1.9, 1.26, 1.2, 0.45, 0.45, -0.89, -0.89, 0.45, 0.45, 0.89, 1.34, 1.34, 1.7, 2.6, 4.47, 3.9, 4.34, 4.47, 3.82, 3.6, 4.0, 4.34, 4.02, 2.21, -1.13, -4.0, -4.92, -4.82, -4.92, -5.36, -5.36, -4.92, -4.47, -3.95, -2.98, -1.98, -0.87, -0.87, -0.87, 4.63, 4.63, 4.63, 5.04, 5.04, 5.69, 5.69, 5.69, 5.69, 5.69, 6.08, 6.34, 6.33, 6.33, 6.33, 6.33, 6.33, 6.31, 6.96, 6.94, 6.94, 6.94, 7.6, 7.33, 6.97, 6.98, 6.98, 6.98, 7.3, 7.59, 6.97, 6.67, 6.67, 6.95, 6.95, 6.95, 7.55, 7.55, 7.55, 6.95, 6.34, 6.34, 5.72, 5.72, 5.44, 5.38, 5.1, 5.1, 5.38, 5.08, 4.75, 4.43, 4.11, 3.79, 3.16, 2.84, 2.23, 2.53, 1.88, 1.9, 1.26, 1.2, 0.45, 0.45, -0.89, -0.89, 0.45, 0.45, 0.89, 1.34, 1.34, 1.7, 2.6, 4.47, 3.9, 4.34, 4.02, 3.82, 3.6, 4.0, 4.34, 4.02, 3.39, -0.0, -2.53, -4.34, -4.47, -4.92, -5.36, -5.36, -5.36, -4.92, -4.34, -3.35, -2.23, 0.0, 0.0, 0.0]}, {"header": {"dx": 0.06612293990616946, "dy": 0.0552356325346848, "nx": 98, "ny": 59, "la1": 35.046912555036876, "la2": 31.78801023549047, "lo1": -121.43107172385933, "lo2": -114.95102361305473, "refTime": "2026040817", "parameterCategory": 1, "parameterNumber": 3}, "data": [-8.15, -7.76, -7.23, -6.95, -6.03, -5.29, -4.43, -4.43, -3.84, -3.84, -3.22, -2.2, -2.6, -3.22, -3.6, -5.29, -6.4, -6.6, -6.63, -6.32, -5.21, -5.21, -3.4, -2.51, -1.72, -1.84, -1.7, -1.99, -1.83, -2.2, -2.0, -2.23, -2.98, -3.39, -4.02, -4.34, -4.98, -4.6, -4.54, -3.63, -3.22, -3.2, -4.0, -6.58, -7.51, -8.05, -9.54, -10.32, -10.54, -8.01, -6.01, -3.63, -2.0, 0.0, 2.0, 1.99, 1.84, 0.82, 0.89, 0.0, 0.0, 0.0, 0.0, 0.0, 0.88, 0.82, 0.95, 0.89, 1.75, 0.85, 0.85, 0.84, 0.0, 0.0, 0.0, 0.0, 0.0, -0.78, -0.96, -1.08, -1.13, -1.2, -1.58, 0.0, 0.0, 0.0, 1.26, 0.0, 0.0, 0.0, 0.0, 2.53, 4.34, 4.82, 5.36, 5.36, 4.92, 4.0, -8.15, -7.76, -7.23, -6.95, -6.41, -5.86, -5.01, -4.74, -4.74, -4.45, -3.83, -4.29, -3.63, -3.35, -4.46, -5.36, -6.45, -7.47, -7.28, -6.79, -7.27, -6.58, -5.21, -2.69, -1.84, -1.98, -1.84, -2.76, -2.99, -3.63, -3.79, -3.93, -4.0, -3.82, -4.02, -4.0, -4.98, -5.6, -5.58, -5.15, -5.37, -6.64, -7.27, -9.17, -10.43, -11.38, -11.19, -11.19, -9.4, -6.64, -4.29, -2.6, -1.05, 0.79, 1.83, 1.84, 1.98, 0.95, 0.83, 0.0, 0.0, 0.0, 0.0, 0.0, 0.0, 0.89, 0.83, 0.94, 0.89, 0.89, 0.89, 0.85, 0.0, 0.0, -0.84, 0.0, -0.89, -0.78, -0.96, -1.08, -1.13, -1.2, -1.58, 0.0, 0.0, 0.0, 1.26, 0.0, 0.0, 0.0, 0.0, 2.53, 4.34, 4.82, 5.36, 5.36, 4.92, 4.0, -8.15, -7.76, -7.61, -7.23, -6.7, -6.15, -5.59, -5.35, -5.01, -5.01, -4.43, -3.48, -4.89, -4.54, -4.19, -5.09, -6.71, -6.94, -7.95, -8.54, -7.41, -7.59, -7.27, -6.58, -4.0, -1.72, -1.84, -2.76, -4.11, -5.15, -5.49, -5.58, -5.2, -5.09, -3.58, -4.84, -4.54, -5.15, -6.82, -7.44, -8.32, -10.55, -12.52, -14.13, -14.5, -13.85, -12.09, -9.89, -6.01, -4.11, -2.76, -1.05, 0.0, 0.96, 1.55, 1.84, 0.89, 0.83, 0.0, 0.0, 0.0, 0.0, 0.0, 0.0, 0.82, 0.89, 0.89, 0.84, 0.85, 0.89, 0.81, 0.0, -0.81, -2.44, -2.54, -2.67, -1.84, -0.95, -2.53, -3.16, -3.35, -2.21, -2.8, -2.68, -2.24, -1.34, 0.0, 0.0, -1.27, -0.98, 0.0, 2.21, 3.35, 4.0, 4.57, 4.82, 4.02, 3.39, -8.15, -7.76, -7.76, -7.61, -7.23, -6.7, -6.15, -5.59, -5.59, -5.59, -5.01, -4.71, -5.58, -5.75, -6.16, -6.45, -7.15, -7.54, -8.14, -8.4, -7.81, -7.56, -7.9, -7.48, -5.9, -5.21, -3.72, -2.76, -4.6, -5.75, -7.2, -8.0, -7.42, -7.47, -6.26, -6.0, -6.08, -7.21, -9.04, -11.28, -13.26, -15.5, -15.74, -15.12, -14.49, -12.89, -9.62, -5.82, -3.39, -2.4, -0.85, 0.0, 1.08, 0.96, 1.99, 0.88, 0.89, 0.83, 0.0, 0.0, 0.0, 0.0, 0.0, 0.89, 0.89, 0.83, 0.94, 1.49, 1.52, 1.47, 0.0, -0.85, -3.32, -4.37, -4.46, -4.42, -2.82, -1.84, -2.95, -3.9, -3.47, -3.39, -3.58, -3.58, -3.58, -3.13, -2.8, -1.98, -2.23, -1.27, 0.0, 1.4, 2.53, 3.35, 3.58, 3.16, 3.35, 3.13, -8.15, -7.76, -7.76, -7.76, -7.61, -7.23, -6.7, -5.88, -5.88, -5.93, -5.59, -5.01, -5.49, -6.0, -6.94, -7.85, -7.56, -8.05, -8.45, -8.82, -9.6, -8.37, -7.59, -7.56, -6.7, -6.5, -6.32, -6.08, -6.4, -6.64, -8.0, -9.49, -10.43, -10.68, -10.73, -10.66, -10.41, -10.94, -13.27, -15.5, -16.1, -14.13, -12.26, -10.24, -9.56, -8.53, -5.89, -3.93, -2.68, -2.24, 0.0, 0.0, 1.13, 1.08, 0.96, 0.88, 0.0, 0.0, 0.0, 0.0, 0.0, 0.0, 0.89, 0.89, 1.84, 1.73, 0.89, 1.84, 2.54, 2.57, 1.67, 0.0, -2.4, -5.21, -5.6, -4.84, -3.63, -2.2, -2.8, -3.58, -4.47, -4.47, -4.47, -4.82, -4.92, -4.47, -3.82, -2.53, -2.21, 0.0, 0.0, 1.2, 2.21, 3.35, 3.16, 2.48, 2.53, 2.68, -7.9, -8.15, -8.15, -8.15, -7.76, -7.61, -7.07, -6.44, -6.23, -6.51, -6.15, -5.59, -5.77, -4.74, -6.57, -7.85, -8.9, -8.94, -9.39, -9.7, -10.08, -10.63, -10.59, -9.76, -9.66, -9.66, -9.86, -9.45, -9.46, -9.29, -8.05, -8.94, -9.83, -11.15, -12.07, -12.52, -12.41, -11.83, -13.89, -15.99, -14.71, -12.39, -9.04, -6.57, -6.33, -5.86, -5.06, -3.55, -2.95, -1.4, 0.0, 0.99, 1.13, 0.98, 0.88, 0.88, 0.0, 0.0, 0.0, 0.0, 0.0, 0.0, 0.89, 1.84, 1.73, 1.84, 1.73, 1.72, 2.82, 3.6, 3.4, 3.47, 1.4, -3.2, -4.82, -4.47, -3.82, -2.53, -3.13, -4.02, -5.36, -5.81, -5.81, -6.2, -6.71, -6.2, -3.58, 0.0, 0.0, 2.24, 2.4, 2.8, 3.39, 2.98, 1.98, 1.27, 1.4, 2.24, -7.9, -8.15, -8.15, -8.15, -8.15, -7.9, -7.35, -6.79, -6.79, -6.7, -6.51, -6.03, -6.11, -4.16, -4.75, -7.2, -8.77, -9.79, -9.83, -9.39, -9.72, -11.79, -12.79, -13.41, -14.03, -13.62, -14.42, -13.88, -12.51, -10.18, -9.76, -8.0, -7.76, -8.3, -10.62, -12.96, -13.39, -12.04, -11.99, -12.45, -13.57, -12.51, -12.42, -11.16, -9.8, -8.01, -6.84, -5.64, -4.42, -2.6, 0.0, 0.0, 0.98, 1.08, 0.88, 0.0, 0.0, 0.0, 0.0, 0.0, 0.0, 0.89, 0.89, 0.95, 1.84, 2.51, 1.73, 0.89, 0.96, 1.84, 2.64, 3.91, 3.48, 2.24, -1.6, -2.98, -3.39, -3.58, -3.58, -4.92, -5.81, -6.64, -7.15, -7.6, -8.05, -6.65, -1.79, 3.39, 3.58, 3.58, 3.13, 3.47, 3.35, 2.53, 0.0, 0.0, 1.9, 2.24, -7.9, -7.9, -7.9, -8.28, -8.43, -8.27, -7.9, -7.35, -7.35, -6.79, -6.7, -6.8, -6.55, -6.18, -5.69, -5.37, -7.67, -9.06, -9.36, -9.35, -8.94, -9.36, -11.36, -11.87, -11.5, -12.04, -13.44, -14.03, -12.95, -11.99, -11.03, -11.18, -11.35, -11.03, -10.52, -11.53, -11.15, -7.85, -7.47, -11.35, -12.51, -13.44, -14.31, -14.42, -13.02, -11.6, -9.04, -7.27, -5.89, -3.68, -2.0, 0.0, 1.08, 0.96, 1.05, 0.0, 0.0, 0.0, 0.0, 0.0, 0.0, 0.0, 0.0, 0.0, 0.89, 1.84, 0.89, 0.0, 0.0, 0.0, 0.95, 1.72, 1.03, 0.96, 1.4, 0.0, -2.24, -3.13, -3.58, -4.47, -5.36, -6.07, -6.21, -7.12, -8.01, -5.77, 0.0, 3.35, 3.82, 3.58, 3.13, 2.98, 2.53, 0.99, 0.0, 0.0, 2.24, 1.9, -7.9, -7.9, -7.9, -8.43, -8.43, -8.43, -8.27, -7.9, -7.9, -7.35, -7.61, -7.81, -9.63, -8.99, -8.58, -8.21, -8.43, -9.66, -9.97, -10.24, -9.76, -9.76, -8.94, -8.0, -5.51, -5.51, -7.63, -10.41, -12.29, -13.02, -13.67, -15.2, -14.58, -12.51, -10.89, -10.25, -8.94, -3.13, 0.0, -6.71, -11.84, -13.02, -13.02, -11.03, -9.03, -8.77, -10.47, -10.05, -7.44, -5.49, -3.22, 0.0, 0.0, 1.05, 0.96, 0.0, 0.0, 0.0, 0.0, 0.0, 0.0, -0.83, -0.89, 0.0, 0.0, 0.0, 0.0, 0.0, 0.0, 0.0, 0.0, 0.0, 0.0, 0.0, 0.78, 0.88, 0.0, 0.0, -1.98, -3.13, -4.82, -5.75, -5.34, -5.75, -6.0, -4.22, 0.0, 1.9, 1.9, 2.68, 2.97, 2.21, 0.99, 0.0, 0.0, 2.24, 2.8, 2.8, -8.27, -7.9, -8.27, -8.43, -8.43, -8.82, -8.43, -8.0, -8.27, -7.9, -7.9, -8.43, -7.23, -6.6, -10.84, -10.84, -10.32, -11.11, -11.84, -11.57, -11.11, -10.66, -10.2, -5.81, 0.0, 0.0, -4.84, -7.81, -10.41, -12.04, -13.41, -11.62, -8.05, -5.09, -7.45, -8.94, -4.47, 4.57, 5.81, 2.53, -6.94, -11.18, -10.32, -6.21, -2.98, -4.0, -6.45, -7.85, -7.85, -6.45, -4.0, -1.13, 0.0, 0.0, 0.0, 0.0, 0.0, -0.89, -0.84, -0.89, -1.65, -1.73, -1.4, -0.96, 0.0, 0.0, 0.0, 0.0, -0.79, -0.89, -0.84, -1.44, -1.52, -0.76, 0.0, 0.0, 0.0, 0.0, -0.76, -1.98, -4.02, -4.47, -4.4, -3.79, -4.01, -2.2, 0.0, 0.0, 0.0, 1.26, 1.9, 1.74, 1.13, 0.0, 1.13, 3.13, 3.39, 3.2, -8.27, -8.27, -8.43, -8.43, -8.82, -8.82, -8.55, -8.55, -8.55, -8.43, -8.82, -8.55, -7.81, -6.52, -9.36, -9.97, -10.6, -6.6, -6.1, -5.46, -10.14, -10.25, -8.49, -1.9, 4.02, 2.68, -3.58, -4.02, -2.53, -5.09, -5.64, -0.0, 3.82, 4.77, 2.53, -3.13, 2.53, 5.51, 4.47, 4.6, -1.13, -8.63, -9.75, -6.23, 0.0, 0.0, -3.58, -6.02, -6.26, -5.36, -4.02, -2.21, -0.98, -1.08, -0.96, -0.96, -1.73, -3.6, -3.27, -3.45, -3.27, -3.4, -2.8, -1.83, -0.96, 0.0, 0.0, -0.85, -2.54, -3.4, -3.45, -2.9, -2.23, -1.49, -0.76, -0.76, -1.49, -1.73, -1.73, -1.84, -3.6, -4.47, -4.47, -3.84, -3.22, -1.45, -0.76, 0.0, 0.0, 0.0, 0.0, 0.0, 1.27, 0.98, 0.0, 1.4, 3.58, 3.58, -8.27, -8.27, -8.18, -8.55, -8.82, -8.72, -9.1, -9.1, -8.55, -8.55, -8.55, -8.65, -8.73, -6.98, -5.09, -4.45, -4.37, -4.37, -4.43, -3.57, -3.57, -3.83, -2.84, 0.0, 3.72, 4.0, 1.6, 1.26, 4.34, 4.92, 4.47, 4.77, 5.26, 4.82, 4.47, 3.9, 3.47, 3.58, 3.82, 3.93, 1.2, -6.71, -9.35, -6.79, -1.8, 0.0, -4.66, -6.71, -6.71, -6.26, -4.92, -4.02, -3.39, -3.35, -3.48, -3.63, -3.72, -4.42, -6.01, -6.01, -5.24, -4.58, -3.79, -2.48, -0.88, 0.0, 0.0, -1.67, -4.5, -5.24, -4.56, -3.69, -3.09, -2.67, -2.67, -2.54, -2.54, -3.4, -3.69, -3.2, -2.99, -4.34, -4.92, -4.57, -3.07, -2.47, -2.18, -1.44, -1.49, -1.45, -1.47, -0.88, 0.0, 0.0, 0.0, 0.0, 2.53, 3.39, -8.43, -8.27, -8.55, -8.55, -8.55, -9.1, -9.48, -9.48, -9.1, -9.1, -8.93, -8.84, -8.73, -8.22, -6.33, -4.4, -3.35, -2.75, -2.75, -2.73, -2.19, -2.28, -1.58, -0.49, 0.0, 1.61, 2.23, 2.21, 1.9, 2.15, 4.57, 4.38, 4.0, 4.0, 3.9, 3.58, 2.68, 2.8, 2.98, 3.35, 0.0, -6.2, -9.39, -7.85, -5.6, -4.66, -5.81, -7.6, -7.94, -7.6, -6.26, -5.81, -5.36, -4.47, -4.66, -3.48, -2.4, -3.79, -4.4, -4.98, -5.6, -5.51, -4.82, -3.82, -2.23, 0.0, 0.74, 0.0, -4.6, -5.51, -4.89, -4.43, -3.91, -3.63, -3.47, -3.72, -3.72, -4.58, -4.65, -4.29, -3.11, -3.63, -4.22, -5.29, -4.57, -3.63, -3.55, -3.69, -3.09, -3.09, -2.35, -2.4, -1.55, -0.88, -1.72, 0.0, 1.08, 2.23, -8.43, -8.18, -8.55, -8.93, -9.1, -9.63, -9.63, -9.63, -9.21, -8.84, -8.84, -8.84, -8.94, -8.5, -7.95, -6.31, -4.57, -3.74, -3.3, -3.27, -3.39, -2.84, -2.73, -2.19, -1.11, -0.0, 1.16, 1.84, 2.23, 2.84, 3.35, 4.98, 4.66, 3.82, 3.13, 2.68, 1.58, 1.9, 2.21, 2.53, 0.0, -5.81, -9.83, -10.22, -7.21, -5.2, -3.35, -5.36, -7.15, -8.05, -8.05, -6.71, -4.02, 0.0, 0.0, 1.9, 2.2, 0.0, -0.0, -0.0, -2.24, -4.92, -6.26, -6.26, -4.4, -2.0, 0.88, 3.35, 0.0, -3.82, -3.9, -2.8, -1.4, -1.2, -2.68, -2.68, -3.39, -3.58, -4.54, -4.89, -4.43, -4.29, -4.11, -3.58, -4.85, -4.22, -4.54, -4.54, -4.11, -3.9, -3.0, -3.9, -3.22, -2.47, -2.35, -0.95, 0.0, 0.88, -8.43, -8.55, -8.55, -8.93, -9.1, -9.63, -10.02, -9.76, -9.76, -9.21, -9.21, -9.21, -8.94, -8.78, -8.53, -7.33, -6.56, -5.0, -4.54, -4.05, -4.02, -3.99, -4.02, -3.42, -2.75, -1.58, -0.0, 0.65, 1.16, 2.23, 3.16, 3.88, 5.2, 4.47, 4.02, 4.0, 1.8, 0.0, 0.0, 2.4, 0.0, -4.47, -7.6, -8.49, -6.71, -3.2, 2.53, 1.8, 0.0, -2.84, -4.47, 0.0, 4.0, 5.36, 5.36, 5.09, 4.4, 2.24, 0.99, 3.48, 3.58, 0.0, -4.02, -5.36, -5.09, -2.0, 3.16, 6.0, 4.11, 0.0, 2.53, 4.74, 4.74, 3.91, 1.83, -0.0, -0.99, -2.4, -3.13, -4.34, -4.6, -4.54, -2.98, -2.53, -1.8, -3.39, -3.13, -4.02, -3.74, -3.79, -4.29, -4.65, -4.74, -3.9, -2.51, -0.89, 0.0, 0.0, -8.82, -8.55, -8.55, -8.65, -8.84, -9.21, -9.76, -9.76, -9.76, -9.76, -9.21, -9.21, -8.94, -8.78, -8.53, -8.24, -7.33, -6.29, -5.64, -5.17, -4.95, -5.14, -4.68, -4.08, -3.8, -2.84, -1.26, 0.0, 0.6, 1.24, 2.84, 4.0, 4.11, 5.2, 5.36, 4.15, 2.84, 0.0, 0.0, 2.68, 1.79, -1.9, -5.36, -6.71, -5.36, 0.0, 4.47, 4.47, 4.47, 4.24, 4.02, 4.47, 4.47, 4.47, 4.47, 4.92, 4.47, 4.02, 3.58, 4.02, 4.02, 4.66, 3.6, 1.8, 0.0, 2.2, 3.16, 3.47, 3.0, 5.09, 6.02, 7.47, 7.12, 5.6, 4.29, 2.0, -0.0, -1.13, -2.53, -3.9, -4.02, -4.0, -3.48, -2.76, -1.99, 0.0, 0.0, -2.24, -3.13, -3.58, -3.91, -5.46, -5.09, -3.79, -3.47, -3.0, -2.29, -2.29, -8.55, -8.55, -8.55, -8.65, -8.65, -9.21, -9.76, -9.76, -10.13, -9.76, -9.5, -9.3, -9.3, -9.02, -8.82, -7.95, -7.6, -6.94, -6.53, -5.83, -5.8, -5.32, -5.17, -4.08, -3.32, -2.75, -2.18, -1.13, 0.0, 0.0, 1.86, 3.88, 4.4, 6.58, 5.75, 5.81, 4.92, 4.02, 3.58, 3.13, 2.68, 0.0, -4.47, -5.36, -4.47, 2.68, 3.6, 3.6, 4.02, 4.02, 4.47, 4.02, 3.58, 3.13, 3.58, 4.02, 4.02, 4.02, 4.0, 4.24, 4.24, 4.0, 3.48, 3.48, 2.73, 3.16, 1.7, 1.7, 4.84, 6.26, 6.08, 5.21, 5.2, 5.51, 5.36, 4.47, 0.99, -2.0, -3.16, -3.93, -4.0, -3.9, -4.34, -3.58, -3.22, -1.83, 0.0, -1.4, -2.84, -3.79, -4.46, -5.86, -6.4, -5.72, -5.24, -4.65, -4.01, -4.01, -8.55, -8.55, -8.93, -8.65, -8.65, -9.21, -9.58, -9.76, -10.3, -9.86, -9.5, -9.3, -9.3, -9.02, -8.5, -8.24, -7.96, -7.59, -6.68, -5.83, -5.11, -5.28, -4.95, -3.57, -2.28, -1.67, -2.37, -2.26, -1.8, -1.27, 0.0, 2.49, 4.6, 4.4, 4.6, 5.75, 5.09, 4.92, 4.47, 4.02, 4.02, 3.13, 0.0, -3.13, -0.0, 2.53, 2.53, 2.53, 2.53, 2.53, 3.13, 3.13, 3.13, 2.21, 2.53, 2.53, 2.53, 3.6, 3.6, 4.0, 3.16, 3.16, 2.0, 2.0, 2.0, 1.13, 0.98, 0.0, 4.4, 6.26, 5.21, 2.95, 3.16, 4.82, 5.36, 4.98, 3.35, 0.0, -0.0, -0.0, -0.0, -0.0, -2.53, -4.57, -4.98, -4.19, -4.11, -2.0, -2.95, -3.93, -4.82, -6.2, -6.79, -6.7, -6.11, -5.49, -4.81, -4.81, -8.55, -8.55, -8.65, -8.65, -9.01, -8.94, -8.94, -9.76, -10.3, -9.86, -9.86, -9.86, -9.02, -9.02, -9.02, -10.18, -8.24, -7.96, -6.7, -5.17, -4.58, -4.7, -5.32, -5.6, -4.13, -5.0, -3.84, -5.9, -5.21, -2.86, -0.95, 1.34, 3.39, 4.11, 3.88, 3.43, 3.14, 2.4, 3.58, 4.02, 3.13, 3.58, 4.02, 4.02, 4.02, 2.21, 2.53, 2.21, 2.21, 3.13, 3.13, 2.68, 2.68, 2.21, 2.21, 0.0, 2.21, 2.21, 2.53, 2.53, 1.8, 1.8, 2.0, 1.13, 0.0, 0.0, 0.0, 0.0, 0.98, 4.4, 4.4, 3.35, 3.16, 3.93, 3.93, 3.48, 2.95, 3.16, 4.34, 5.36, 3.79, 1.08, -2.53, -4.47, -5.51, -6.16, -6.21, -5.43, -4.54, -3.58, -3.9, -5.73, -7.85, -7.47, -6.44, -6.21, -6.16, -6.16, -8.55, -8.55, -8.65, -9.01, -8.73, -8.94, -9.3, -9.3, -9.86, -10.04, -9.86, -9.86, -9.59, -9.37, -9.37, -8.5, -8.53, -7.93, -8.76, -7.12, -6.4, -5.77, -6.25, -7.79, -7.82, -7.27, -7.35, -5.32, -5.01, -3.35, -1.34, 0.89, 2.63, 3.39, 3.2, 2.79, 2.68, 2.15, 1.86, 1.7, 1.7, 1.79, 2.24, 3.07, 2.6, 3.13, 2.21, 2.21, 2.21, 3.13, 3.13, 3.13, 3.13, 2.21, 1.9, 1.9, 0.0, 0.0, 0.0, 0.0, 0.0, 0.0, 0.0, 1.6, 1.2, 0.0, 0.0, 0.0, 0.96, 1.84, 2.67, 2.57, 1.62, 0.81, 0.89, 0.0, 0.0, 0.96, 5.81, 6.2, 4.98, 1.99, -0.0, -2.98, -4.47, -4.85, -5.09, -4.22, -4.46, -3.16, -3.16, -4.82, -6.65, -7.85, -6.79, -6.57, -6.45, -6.45, -8.55, -8.55, -8.65, -9.21, -8.94, -8.94, -9.3, -9.3, -9.5, -9.86, -10.04, -9.94, -9.59, -9.59, -9.66, -9.13, -8.53, -8.5, -8.45, -9.89, -9.4, -6.7, -6.94, -7.33, -7.3, -5.71, -4.43, -4.65, -3.88, -2.63, -0.89, 0.0, 1.79, 2.63, 2.91, 2.68, 2.5, 2.4, 1.86, 1.7, 1.7, 1.79, 2.24, 2.63, 2.63, 3.58, 3.13, 2.21, 2.21, 3.13, 3.13, 3.13, 3.13, 3.58, 3.2, 1.4, 0.0, 0.0, 0.0, 0.0, 0.0, 0.0, 0.0, 0.0, 1.9, 1.4, 1.13, 1.08, 1.7, 2.82, 2.44, 0.82, 0.0, -0.85, -0.89, -0.88, -1.47, 0.0, 4.34, 5.81, 5.29, 2.95, -0.0, -0.87, -2.21, -3.58, -4.02, -3.6, -3.84, -3.35, -3.63, -3.16, -4.47, -6.26, -6.98, -6.07, -5.75, -5.75, -8.55, -8.93, -8.65, -9.21, -8.94, -9.3, -9.3, -9.3, -9.3, -9.86, -10.41, -10.15, -9.94, -9.66, -9.66, -9.46, -8.85, -8.56, -8.85, -8.85, -7.32, -6.34, -6.08, -6.98, -6.98, -6.08, -4.46, -3.49, -2.49, -1.34, -0.63, 0.0, 0.89, 2.24, 2.63, 2.91, 2.49, 2.4, 2.17, 1.7, 1.79, 1.79, 2.24, 2.68, 3.07, 1.7, 2.68, 2.21, 3.58, 3.58, 3.13, 3.13, 3.13, 3.13, 2.53, 1.8, 0.0, -1.58, -3.13, -3.13, -1.58, -1.58, 0.0, 0.0, 1.58, 1.2, 1.4, 1.13, 0.98, 3.47, 2.66, 0.0, -1.9, -1.9, -1.4, -2.3, -2.29, -0.81, 1.74, 3.95, 5.36, 4.57, 2.0, -0.0, -1.27, -2.98, -4.02, -4.34, -4.19, -4.36, -4.65, -3.22, -2.6, -4.02, -5.81, -5.75, -5.73, -5.73, -8.55, -8.55, -8.93, -9.01, -8.94, -9.3, -9.02, -9.02, -9.02, -9.37, -9.86, -10.15, -9.94, -9.66, -10.01, -9.72, -9.17, -9.17, -8.58, -8.87, -7.33, -5.67, -5.04, -5.08, -6.06, -6.69, -5.46, -4.1, -2.21, -0.89, -0.45, 0.0, 0.45, 1.34, 2.24, 2.6, 2.6, 2.6, 2.17, 1.79, 1.79, 1.79, 2.17, 3.07, 3.13, 2.24, 3.58, 3.6, 4.24, 4.47, 4.02, 3.58, 3.13, 3.13, 2.53, 1.8, 1.13, 0.0, -3.58, -3.58, -3.13, -1.58, 0.0, 0.0, 0.0, 0.0, 0.0, 0.0, 1.13, 0.0, 0.0, 3.58, 0.96, -0.0, 0.0, -1.58, -2.41, -1.66, 0.0, 2.54, 4.47, 5.81, 4.98, 3.16, -0.0, -2.53, -3.58, -4.02, -3.82, -3.9, -5.43, -4.43, -2.84, -2.4, -4.02, -4.85, -4.85, -4.85, -8.55, -8.55, -8.65, -8.65, -8.94, -9.3, -9.02, -9.02, -9.02, -9.02, -9.59, -9.59, -9.94, -9.94, -10.01, -9.72, -9.77, -9.48, -9.19, -8.59, -7.57, -6.5, -5.17, -4.38, -5.08, -5.72, -6.35, -5.1, -3.22, -1.58, -0.63, 0.0, 0.0, 0.63, 1.34, 2.24, 2.17, 2.17, 2.24, 1.79, 1.79, 1.79, 2.17, 2.91, 3.39, 3.39, 4.66, 4.66, 5.09, 5.36, 4.92, 4.02, 3.58, 3.58, 2.53, 2.53, 1.98, 0.98, 0.0, -4.47, -3.58, -2.68, -1.79, 0.0, 0.0, 0.0, 0.0, 0.0, 0.0, 0.0, 0.0, 3.79, -0.0, -0.0, -0.0, -0.0, -2.68, -2.53, 0.0, 1.26, 3.13, 4.47, 5.31, 5.31, 4.0, -0.0, -1.2, -1.58, -0.0, -1.13, -5.29, -5.09, -3.6, -1.9, -2.97, -3.95, -4.85, -4.85, -8.55, -8.55, -8.65, -8.65, -8.73, -8.94, -9.02, -9.02, -9.02, -9.02, -9.37, -9.59, -9.59, -9.94, -9.66, -9.46, -9.77, -9.48, -9.19, -8.87, -8.22, -7.55, -6.46, -5.14, -4.57, -5.06, -5.72, -5.44, -4.75, -2.86, -1.24, -0.6, 0.0, 0.0, 0.63, 1.34, 1.79, 1.79, 1.79, 1.79, 1.79, 1.34, 1.7, 2.4, 2.79, 2.79, 2.53, 2.5, 2.68, 3.39, 3.53, 5.36, 4.47, 4.02, 3.2, 2.53, 1.8, 2.23, 2.2, 0.0, -3.58, -2.4, -1.79, 0.0, 0.0, 0.0, 0.0, 0.0, -1.4, -0.96, 0.0, 1.4, -0.0, -0.96, -1.05, -0.0, -0.0, -1.79, -3.13, 0.0, 2.24, 3.58, 4.47, 4.92, 5.36, 3.35, 1.27, -0.0, -0.0, -1.66, -3.22, -4.41, -4.38, -3.35, -2.6, -2.98, -3.95, -3.95, -8.55, -8.55, -8.65, -8.65, -8.73, -8.73, -9.02, -9.02, -9.37, -9.02, -9.37, -9.37, -9.59, -9.94, -9.66, -9.13, -9.46, -9.17, -9.19, -9.19, -8.87, -8.22, -7.55, -6.46, -5.6, -5.0, -5.32, -5.1, -5.06, -3.83, -2.23, -1.2, -0.57, 0.0, 0.0, 0.6, 1.34, 1.34, 1.34, 1.34, 1.34, 1.34, 1.34, 1.26, 1.9, 2.21, 2.21, 2.5, 2.68, 3.07, 3.6, 3.98, 5.81, 5.36, 4.24, 2.53, 2.53, 1.8, 2.0, 2.4, 0.0, 0.0, -1.58, 0.0, 0.0, 0.0, 0.0, 0.0, -2.23, -2.0, -0.96, 0.0, 0.0, -0.88, -1.98, -0.89, -0.0, -1.26, -2.68, -2.24, 0.0, 3.13, 3.58, 4.38, 4.47, 4.34, 2.23, -0.0, -1.27, -1.8, -2.68, -4.15, -4.92, -4.57, -3.58, -3.72, -3.6, -3.6, -8.55, -8.55, -8.65, -8.65, -8.73, -8.73, -8.78, -9.02, -9.37, -9.37, -9.02, -9.37, -9.37, -9.66, -9.66, -9.13, -9.13, -8.87, -8.87, -8.87, -8.59, -8.59, -7.95, -7.55, -6.46, -5.83, -5.23, -5.09, -4.75, -3.83, -3.2, -2.48, -1.6, -1.13, -0.61, 0.0, 0.0, 0.0, 0.63, 0.63, 0.63, 0.95, 0.63, 0.89, 0.95, 1.58, 1.9, 2.5, 2.68, 3.07, 3.2, 3.6, 3.87, 4.02, 4.92, 3.39, 3.58, 2.53, 2.23, 2.2, 1.7, 0.0, -3.13, 0.0, 0.0, 0.0, 0.0, 0.0, -0.98, -1.08, -1.83, -1.05, 0.0, 0.0, 1.4, 1.99, -0.0, -1.98, -2.68, -2.68, 0.0, 2.24, 3.13, 3.47, 4.02, 4.47, 3.58, -0.0, -0.0, -0.0, 1.0, -1.2, -5.36, -5.73, -5.09, -4.57, -4.15, -4.15, -8.65, -8.65, -8.65, -8.65, -8.73, -8.73, -8.78, -8.78, -9.02, -9.08, -9.12, -8.78, -9.08, -9.42, -9.66, -9.46, -9.13, -8.87, -8.87, -8.58, -8.24, -8.23, -8.22, -7.95, -7.13, -6.46, -5.62, -6.07, -5.44, -4.43, -3.48, -2.23, -1.8, -1.58, -1.13, -0.61, -0.54, 0.0, 0.0, 0.0, 0.0, 0.0, 0.0, -0.63, -1.2, -0.0, 0.65, 2.5, 2.68, 2.68, 3.07, 3.07, 3.6, 3.87, 4.02, 4.92, 4.02, 3.6, 2.84, 2.2, 0.96, 1.13, 0.0, -0.0, 0.0, 0.0, 0.0, 0.0, 0.0, 0.0, -0.88, -0.96, -0.96, 0.0, 3.58, 5.81, 3.79, -0.88, -3.35, -2.68, -1.79, 0.63, 1.79, 2.97, 3.47, 4.38, 4.15, 3.58, 3.58, 4.47, 4.92, 3.2, -4.82, -5.81, -5.77, -5.59, -5.09, -5.09, -8.65, -8.65, -8.65, -8.65, -8.73, -8.73, -8.78, -8.78, -8.78, -8.82, -8.82, -8.5, -8.82, -9.08, -9.42, -9.72, -9.46, -9.17, -8.87, -8.58, -8.24, -7.96, -8.23, -7.96, -7.57, -7.57, -6.92, -6.56, -5.72, -5.06, -3.48, -2.51, -1.8, -1.58, -1.58, -1.13, -1.16, -0.54, 0.0, 0.0, 0.0, 0.0, 0.0, 0.0, -2.24, -1.26, -0.0, 2.21, 2.5, 2.91, 2.91, 2.68, 3.07, 3.6, 3.87, 3.54, 5.36, 5.09, 3.58, 2.2, 1.08, 1.4, 3.13, 3.13, 2.24, 0.0, -0.98, -1.8, -2.0, -0.96, -1.05, -0.96, -0.89, -0.96, 1.08, 4.38, 5.29, 2.23, -2.48, -3.35, -2.8, -0.0, 0.89, 2.24, 3.58, 4.02, 4.47, 5.26, 4.82, 5.36, 5.36, 4.47, -0.0, -5.59, -6.71, -6.21, -5.77, -5.77, -8.65, -8.65, -8.65, -8.65, -8.73, -8.73, -8.45, -8.78, -8.78, -8.82, -8.82, -8.82, -8.5, -8.82, -9.42, -9.72, -9.72, -9.46, -8.87, -8.58, -8.24, -7.96, -7.96, -7.59, -7.59, -7.32, -6.92, -6.96, -6.35, -5.08, -3.79, -2.51, -1.6, -1.58, -2.22, -1.58, -1.6, -1.16, -0.54, -0.71, -0.57, 0.0, 0.0, 0.0, 0.0, -2.4, -0.0, 2.5, 2.8, 2.4, 2.49, 2.91, 3.07, 3.07, 3.2, 3.6, 3.53, 4.02, 4.98, 4.0, 2.98, 3.13, 3.58, 3.58, 1.2, 0.0, 0.0, -3.48, -3.58, -2.95, -2.76, -1.99, -0.96, -0.88, -1.08, 1.9, 4.47, 4.34, -0.0, -3.93, -3.16, -1.26, -0.0, 1.86, 2.68, 3.83, 3.84, 3.84, 3.22, 3.04, 3.47, 3.47, -0.0, -5.2, -6.66, -7.15, -6.66, -6.66, -8.65, -8.65, -8.65, -8.65, -8.73, -8.73, -8.45, -8.78, -8.78, -8.82, -8.82, -8.82, -8.82, -8.5, -8.82, -9.42, -9.46, -9.46, -9.17, -8.58, -8.58, -8.24, -7.96, -7.59, -7.33, -7.59, -7.59, -6.96, -5.7, -5.1, -4.12, -2.86, -2.23, -2.23, -2.22, -2.22, -2.22, -1.6, -1.16, -1.2, -1.0, -0.71, 0.0, 0.0, 0.71, 0.0, 1.79, 2.4, 2.4, 2.6, 2.49, 2.91, 2.91, 3.07, 3.07, 3.2, 3.6, 3.98, 4.02, 4.92, 4.02, 3.58, 3.58, 2.21, 1.4, 0.0, 0.0, -2.0, -5.09, -5.21, -4.6, -2.95, 0.0, 0.0, -1.6, 0.0, 4.0, 4.82, 2.53, -2.48, -3.16, -2.53, -0.71, 0.65, 1.84, 2.23, 2.23, 2.68, 1.6, 2.6, 2.68, 2.97, 1.79, -2.84, -6.55, -7.12, -7.15, -7.15, -8.29, -8.29, -8.65, -8.65, -8.38, -8.73, -8.45, -8.78, -8.78, -8.5, -8.82, -8.82, -8.82, -8.5, -8.5, -8.82, -9.13, -9.46, -9.17, -9.17, -8.58, -8.58, -8.24, -7.59, -7.59, -7.59, -7.33, -6.97, -7.51, -5.41, -4.74, -3.49, -2.86, -2.22, -2.44, -2.86, -2.86, -2.48, -1.6, -1.61, -1.16, -1.2, -0.54, 0.0, 0.6, 1.2, 1.79, 2.17, 2.17, 2.6, 2.49, 2.91, 2.91, 2.91, 2.91, 3.07, 3.07, 3.6, 3.82, 3.58, 4.02, 3.13, 2.4, 1.2, 0.0, 0.0, 0.0, 0.0, 0.0, -3.16, -2.53, -1.13, 0.0, 0.0, -0.0, 1.08, 2.95, 4.0, 2.84, -0.0, -3.07, -3.16, -2.53, -0.65, -0.0, 0.61, 1.2, 1.24, 2.23, 2.53, 2.97, 3.04, 2.97, -1.9, -6.28, -6.98, -7.11, -7.11, -8.29, -8.29, -8.65, -8.65, -8.38, -8.73, -8.45, -8.45, -8.78, -8.5, -8.82, -8.82, -8.82, -8.82, -8.5, -8.5, -8.82, -8.53, -8.85, -9.17, -8.87, -8.58, -8.24, -8.24, -7.59, -7.59, -7.6, -6.97, -6.69, -8.22, -5.01, -4.29, -3.16, -2.6, -2.86, -2.84, -2.86, -2.86, -2.48, -1.8, -1.84, -1.16, -1.2, -0.71, 0.0, 0.63, 1.34, 1.79, 2.17, 2.6, 2.6, 2.49, 2.91, 2.91, 2.91, 2.91, 3.07, 3.07, 3.32, 3.07, 2.68, 2.24, 2.21, 1.2, 0.0, 0.0, 0.0, 0.0, 0.0, 0.0, 0.99, 0.0, -0.96, 0.0, -0.0, 1.05, 1.08, 2.23, 1.8, -0.0, -2.0, -3.48, -3.22, -2.53, -0.65, -0.0, 0.57, 1.6, 2.53, 3.16, 3.35, 3.13, 3.04, -0.0, -4.46, -6.7, -6.55, -6.55, -8.29, -8.29, -8.65, -8.65, -8.38, -8.38, -8.73, -8.45, -8.78, -8.5, -8.82, -8.82, -8.82, -8.82, -8.5, -8.22, -8.22, -8.24, -8.53, -8.56, -8.87, -8.87, -8.58, -7.96, -7.96, -7.96, -7.6, -7.33, -7.6, -6.04, -4.94, -4.0, -3.43, -3.48, -3.22, -3.22, -3.22, -3.2, -2.86, -2.48, -1.8, -1.84, -1.16, -0.65, -0.57, 0.0, 0.89, 1.34, 1.7, 2.17, 2.6, 2.4, 2.4, 2.8, 2.91, 2.91, 2.68, 2.68, 2.68, 2.63, 4.02, 2.21, 2.21, 0.0, 0.0, 0.0, 0.0, 0.0, 0.0, 1.7, 2.0, 0.0, -1.84, -1.83, 0.0, -0.0, -0.0, -0.0, -0.0, -0.0, -1.74, -3.6, -3.6, -2.98, -2.21, -0.0, -0.0, 0.89, 2.97, 3.6, 3.6, 3.9, 3.13, 1.79, -3.6, -6.0, -6.36, -6.36, -8.29, -8.29, -8.65, -8.65, -8.38, -8.38, -8.73, -8.45, -8.78, -8.5, -8.5, -8.82, -8.5, -8.5, -8.5, -8.82, -8.24, -8.24, -8.24, -8.85, -8.56, -8.56, -8.56, -7.96, -8.24, -8.24, -7.96, -7.33, -7.6, -6.34, -5.01, -3.64, -3.09, -3.16, -3.49, -3.49, -3.49, -3.49, -3.2, -2.6, -2.23, -1.6, -1.16, -1.0, -0.65, -0.57, 0.0, 0.89, 1.79, 2.12, 2.17, 2.6, 2.4, 2.4, 2.8, 2.68, 2.68, 2.68, 2.68, 2.6, 2.17, 3.2, 2.21, 0.0, 2.21, 2.53, 0.99, 0.0, 0.0, 0.0, 0.88, 0.0, -1.84, -1.84, -1.08, 0.0, -1.4, -2.23, -2.23, -1.98, -2.21, -2.97, -3.13, -2.54, -2.0, -1.34, -0.89, 0.0, 2.8, 2.98, 3.6, 3.9, 3.58, 2.24, -1.79, -4.8, -6.0, -6.0, -8.29, -8.29, -8.29, -8.65, -8.38, -8.38, -8.73, -8.45, -8.45, -8.78, -8.5, -8.5, -8.5, -8.5, -8.5, -8.5, -8.53, -8.24, -8.24, -8.24, -8.85, -8.85, -8.56, -8.24, -8.24, -8.24, -7.96, -7.61, -6.98, -6.34, -5.06, -4.07, -2.84, -3.16, -3.49, -3.83, -4.12, -3.49, -3.49, -3.2, -2.86, -2.23, -1.84, -1.16, -1.61, -1.0, -0.6, 0.0, 1.34, 1.7, 2.12, 2.17, 2.0, 2.4, 2.4, 2.91, 2.68, 2.68, 2.91, 2.6, 2.24, 1.86, 1.6, 1.9, 1.9, 2.21, 1.13, 0.0, 0.0, 0.0, 0.0, 0.0, 0.0, -0.96, -1.84, -0.96, -1.4, -2.24, -2.23, -2.84, -2.98, -2.97, -2.68, -2.24, -2.24, -1.79, 0.0, 2.24, 2.4, 2.8, 2.98, 3.35, 3.39, 2.68, 0.0, -3.6, -5.82, -5.82, -8.29, -8.29, -8.29, -8.65, -8.15, -8.15, -8.15, -8.45, -8.45, -8.78, -8.5, -8.5, -8.5, -8.5, -8.5, -8.5, -8.53, -8.24, -8.24, -8.24, -8.24, -8.85, -8.85, -7.95, -8.56, -8.24, -7.96, -7.61, -7.3, -6.64, -5.69, -4.43, -3.16, -2.86, -3.2, -3.83, -3.84, -4.12, -3.83, -3.49, -3.48, -2.86, -2.23, -2.95, -1.9, -1.88, -1.24, 0.0, 0.45, 1.34, 1.7, 2.12, 2.12, 2.0, 2.4, 2.8, 2.91, 2.91, 2.91, 2.6, 2.24, 1.7, 2.53, 2.8, 2.4, 0.0, 0.0, 0.0, 0.0, 0.0, 0.0, 0.0, 0.0, 0.0, -1.84, -2.76, -2.0, 0.0, -0.0, -1.8, -3.22, -3.47, -3.13, -2.68, -1.79, 0.0, 0.0, 2.24, 2.24, 2.4, 2.98, 3.35, 2.98, 2.4, 0.0, -2.54, -3.22, -4.46, -8.55, -8.55, -8.29, -8.44, -8.15, -8.15, -8.15, -8.19, -8.45, -8.78, -8.5, -8.5, -8.5, -8.5, -8.5, -8.5, -8.82, -8.53, -8.24, -8.24, -8.24, -8.53, -8.53, -8.24, -8.56, -8.56, -8.24, -7.95, -7.6, -6.95, -6.28, -5.01, -3.79, -3.2, -3.49, -3.83, -3.84, -3.84, -4.12, -3.79, -3.2, -3.16, -2.58, -2.95, -1.58, -2.21, -2.5, -1.58, 0.0, 0.89, 1.34, 1.7, 1.7, 1.86, 2.4, 2.4, 2.91, 2.91, 2.91, 3.07, 2.68, 1.7, 2.21, 1.58, 1.58, 0.0, 0.0, 0.0, 0.0, 0.0, 0.0, 0.0, 0.0, 0.0, -2.2, -3.93, -4.0, -2.24, -0.0, -0.79, -2.84, -3.47, -3.13, -2.68, -1.34, 0.0, 0.0, 0.0, 1.79, 1.58, 2.8, 2.53, 2.98, 2.4, 0.0, -2.0, -1.9, -3.22, -8.55, -8.55, -8.08, -8.08, -8.44, -8.15, -8.15, -8.49, -8.45, -8.78, -8.5, -8.5, -8.5, -8.5, -8.5, -8.5, -8.82, -8.53, -8.24, -8.24, -8.24, -8.24, -8.53, -8.24, -8.24, -8.25, -7.95, -8.24, -7.6, -6.95, -6.28, -5.59, -4.43, -3.49, -3.49, -3.22, -4.12, -4.12, -4.12, -4.12, -3.79, -3.73, -3.48, -2.53, -3.93, -2.5, -3.2, -2.4, -1.2, 0.0, 0.89, 1.2, 1.6, 1.7, 1.86, 2.4, 2.4, 2.91, 3.32, 2.91, 2.68, 2.12, 1.26, 2.21, 0.0, 0.0, 1.2, 1.4, 1.4, 0.0, 0.0, -1.08, -1.84, 0.0, 0.0, -4.02, -4.47, -3.2, -0.0, -0.0, -0.87, -2.6, -2.54, -2.0, -1.79, -1.34, -1.34, 0.0, 0.0, 0.0, 1.58, 1.4, 1.98, 1.2, -0.0, -1.58, -1.26, -1.9, -8.55, -8.55, -8.08, -8.08, -8.44, -8.15, -8.15, -8.15, -8.19, -8.19, -8.78, -8.5, -8.5, -8.5, -8.5, -8.5, -8.5, -8.82, -8.53, -8.24, -8.24, -8.24, -8.24, -8.53, -7.93, -7.93, -8.24, -7.93, -7.9, -7.23, -6.52, -5.93, -5.01, -4.43, -3.84, -3.84, -4.12, -4.47, -4.75, -4.45, -4.43, -4.11, -4.07, -3.48, -2.84, -3.93, -2.63, -3.13, -1.7, 0.0, 0.45, 0.89, 1.2, 1.6, 1.7, 2.17, 2.6, 2.91, 2.91, 2.91, 3.07, 2.68, 3.2, 2.21, 2.68, 2.21, 1.9, 2.53, 0.99, 0.0, -0.98, -2.2, -1.41, 0.0, 0.0, -2.84, -3.93, -3.16, -1.27, -0.0, -0.0, -1.2, -1.9, -2.0, -1.79, -2.0, -2.4, -1.58, 0.0, 0.0, -0.0, -0.0, -0.0, -0.0, -0.0, -1.58, -1.58, -1.58, -8.37, -8.37, -8.08, -8.08, -8.08, -8.15, -8.15, -8.15, -8.19, -8.19, -8.19, -8.22, -8.22, -8.22, -8.5, -8.5, -8.5, -8.82, -8.82, -8.24, -8.24, -8.24, -8.24, -8.53, -7.93, -8.22, -8.22, -8.22, -7.9, -7.55, -6.52, -6.15, -5.59, -4.74, -4.45, -4.47, -4.47, -4.47, -4.47, -4.47, -4.45, -4.71, -4.37, -4.11, -3.49, -1.61, -1.34, -2.24, -2.24, -0.89, 0.0, 0.45, 0.89, 1.2, 1.7, 2.12, 2.6, 2.63, 2.91, 2.91, 3.07, 2.68, 2.6, 2.53, 3.13, 1.9, 0.0, 0.0, 0.0, 0.0, -0.98, -2.2, -2.8, -1.05, 0.0, 3.58, -0.0, -2.2, -2.48, -2.23, -1.0, -1.26, -1.79, -2.24, -2.0, -2.21, -1.4, -1.9, -1.58, -1.58, -1.79, -0.0, -0.0, -0.0, -2.24, -2.24, -2.24, -2.24, -8.37, -8.37, -8.08, -8.08, -8.08, -8.44, -8.15, -8.15, -8.15, -8.19, -8.19, -8.22, -8.22, -8.22, -8.22, -8.5, -8.5, -8.5, -8.82, -8.24, -8.24, -8.24, -8.24, -8.53, -8.5, -8.22, -7.9, -7.9, -8.19, -7.55, -6.87, -6.15, -5.59, -5.06, -5.37, -5.08, -4.81, -5.1, -5.1, -5.08, -5.06, -4.74, -4.71, -4.37, -3.49, -1.58, -0.99, -1.79, -2.24, -1.34, 0.0, 0.0, 0.45, 0.89, 1.2, 1.7, 2.17, 2.6, 2.49, 2.91, 2.91, 2.63, 2.68, 3.6, 2.21, 2.21, 0.0, 0.0, 0.0, 0.0, -0.98, -2.2, -1.99, -1.84, 0.0, 2.23, 3.13, -0.0, -2.23, -2.53, -2.8, -2.24, -2.68, -2.54, -2.97, -2.21, -1.4, -1.4, 0.0, 0.0, 0.0, 0.0, -0.0, -1.9, -2.68, -2.24, -2.24, -2.24, -8.37, -8.37, -8.08, -8.08, -8.08, -8.08, -8.15, -8.15, -8.15, -8.19, -8.19, -8.19, -8.22, -8.22, -8.22, -8.5, -8.5, -8.5, -8.5, -8.53, -8.24, -8.24, -8.53, -8.53, -8.82, -8.22, -7.9, -7.3, -7.59, -7.51, -7.09, -6.51, -6.15, -5.65, -5.69, -5.1, -5.1, -5.38, -5.38, -5.1, -5.08, -5.06, -4.43, -4.71, -4.11, -3.12, -1.84, -1.86, -1.7, -1.34, -0.89, 0.0, 0.0, 0.45, 1.34, 1.7, 2.17, 2.17, 2.6, 2.91, 2.8, 2.4, 2.68, 2.17, 2.53, 2.21, 0.0, 0.0, 0.0, -1.13, -2.2, -2.0, -1.99, -1.84, 0.0, 1.84, 2.76, 1.13, 0.0, 0.0, 0.0, -1.79, -3.13, -3.58, -2.97, -2.0, 0.0, 0.0, 0.0, 0.0, 0.0, -1.79, -1.9, -2.68, -2.68, -2.68, -2.68, -2.68, -8.37, -8.37, -8.08, -8.08, -8.08, -8.08, -8.44, -8.15, -8.15, -8.19, -8.19, -8.19, -8.22, -8.22, -8.22, -8.5, -8.5, -8.5, -8.5, -8.5, -8.53, -8.53, -8.53, -8.53, -8.82, -8.5, -7.9, -8.19, -7.55, -7.51, -7.09, -6.79, -6.51, -6.23, -5.69, -5.41, -5.71, -5.44, -5.44, -5.71, -5.69, -5.06, -5.01, -4.71, -4.71, -4.11, -2.86, -2.21, -1.86, -1.6, -1.2, -0.89, 0.0, 0.0, 0.89, 1.79, 1.79, 2.17, 2.17, 2.4, 2.4, 2.4, 2.17, 2.24, 1.58, 0.0, 0.0, 0.0, 0.0, -0.98, -0.98, 0.0, 0.0, 0.0, 0.0, 0.96, 0.96, 0.96, 0.96, 2.0, 2.0, 0.0, -2.68, -2.21, -1.2, -0.0, 0.0, 1.0, 1.2, 2.68, 0.0, -1.9, -3.13, -3.13, -3.13, -3.13, -3.13, -3.13, -8.37, -8.37, -8.37, -8.08, -8.08, -8.08, -8.08, -8.15, -8.15, -8.15, -8.19, -8.19, -7.9, -8.22, -8.22, -8.5, -8.5, -8.5, -8.5, -8.5, -8.82, -8.53, -8.53, -9.08, -8.82, -8.5, -8.5, -8.19, -7.55, -7.51, -7.44, -6.79, -6.79, -6.23, -6.28, -5.71, -5.71, -5.72, -5.72, -5.71, -5.38, -5.06, -5.01, -5.01, -4.71, -4.37, -4.07, -2.84, -2.5, -1.86, -1.2, -0.95, -0.89, 0.0, 0.89, 1.34, 1.79, 1.79, 2.17, 2.17, 2.4, 2.4, 2.12, 1.79, 1.24, 0.0, 0.0, 0.0, 0.0, 0.0, 0.0, 0.0, 0.0, 0.0, 0.0, 0.0, 0.0, 0.0, 0.96, 1.99, 1.99, 1.13, -1.13, -0.81, -0.0, 1.98, 2.4, 1.79, 1.79, 0.0, -1.58, -2.8, -3.39, -3.39, -3.39, -3.39, -3.39, -3.39, -8.0, -8.0, -8.37, -8.08, -8.08, -8.08, -8.08, -8.15, -8.15, -8.15, -8.19, -8.19, -8.19, -8.22, -8.22, -8.5, -8.5, -8.5, -8.5, -8.5, -8.5, -8.82, -9.42, -9.42, -9.08, -8.82, -8.5, -8.19, -7.81, -7.73, -7.44, -7.35, -6.79, -6.79, -6.28, -6.32, -6.04, -6.04, -5.72, -5.71, -5.41, -5.08, -5.06, -5.01, -4.43, -4.37, -3.79, -3.48, -2.84, -2.15, -1.86, -1.6, -0.95, 0.0, 0.89, 1.34, 1.34, 1.79, 1.79, 2.12, 2.17, 2.17, 2.12, 1.79, 1.86, 0.0, 0.0, 0.0, 0.0, 0.0, 0.0, 1.27, 0.0, 0.0, 0.0, 0.0, 0.0, 0.0, 0.96, 1.05, 1.05, 0.0, -2.23, -0.88, 0.88, 2.84, 3.2, 2.68, 0.0, -1.34, -2.24, -2.4, -3.2, -3.82, -3.9, -3.9, -3.9, -3.9, -8.0, -8.0, -8.0, -8.37, -8.08, -8.08, -8.08, -8.08, -8.15, -8.15, -8.19, -8.19, -8.19, -8.22, -8.5, -8.5, -8.5, -8.5, -8.5, -8.5, -8.82, -9.42, -9.42, -9.42, -9.42, -9.08, -8.78, -8.45, -8.15, -7.73, -7.44, -7.35, -7.15, -6.79, -6.28, -6.32, -6.34, -6.34, -6.34, -6.04, -5.71, -5.69, -5.08, -5.06, -5.01, -4.71, -4.11, -4.07, -3.43, -2.79, -2.15, -1.86, -1.6, -0.63, 0.45, 0.89, 0.89, 1.34, 1.79, 1.79, 2.12, 2.12, 2.12, 1.79, 1.86, 2.21, 1.2, 0.0, -1.4, -1.13, -1.13, 0.0, 0.0, 0.0, 0.0, 0.0, 0.0, 0.0, 0.0, 0.0, 0.0, 1.13, -2.24, -2.0, -0.0, 2.41, 3.58, 1.79, -1.34, -2.0, -1.79, -2.24, -1.9, -3.2, -3.6, -3.9, -3.9, -3.9, -8.0, -8.0, -8.0, -8.37, -8.08, -8.08, -8.08, -8.08, -8.15, -8.15, -8.49, -8.19, -8.45, -8.78, -8.5, -8.5, -8.5, -8.5, -8.5, -8.5, -9.08, -9.42, -9.66, -9.66, -9.42, -9.08, -9.37, -8.78, -8.38, -8.08, -8.0, -7.72, -7.35, -7.15, -6.87, -6.32, -6.34, -6.35, -6.35, -6.34, -6.32, -5.71, -5.69, -5.37, -5.35, -4.43, -4.37, -4.07, -3.48, -3.16, -2.79, -2.15, -1.86, 0.0, 0.0, 0.45, 0.89, 0.89, 1.34, 1.79, 1.79, 2.12, 2.12, 1.79, 2.12, 2.53, 1.4, 0.0, 0.0, -1.98, -2.23, -1.98, -1.13, 0.0, 0.0, 0.0, 0.0, 0.0, 0.0, 0.0, 1.27, 1.6, 2.24, -0.0, 1.08, 3.6, 3.47, 2.68, 0.0, -2.24, -2.4, -2.0, -1.79, -2.8, -3.82, -3.9, -3.9, -3.9, -8.0, -8.0, -8.0, -8.37, -8.08, -8.08, -8.08, -8.08, -8.15, -8.15, -8.15, -8.45, -8.45, -8.78, -8.5, -8.5, -8.5, -8.78, -8.78, -8.78, -9.37, -9.94, -9.66, -9.66, -9.66, -9.37, -9.37, -9.3, -8.38, -8.08, -8.0, -7.44, -7.09, -6.87, -6.87, -6.59, -6.34, -6.35, -6.35, -6.34, -6.32, -5.71, -5.69, -5.65, -5.06, -5.01, -4.71, -4.37, -4.07, -3.78, -2.84, -2.79, -2.15, -0.95, 0.0, 0.0, 0.89, 0.63, 0.89, 1.34, 1.79, 1.79, 1.7, 1.79, 1.7, 1.58, 1.13, 0.99, 0.0, 0.0, -1.4, -2.53, -2.98, -2.21, 0.0, 0.0, 0.0, 0.0, 0.0, 0.0, 1.13, 1.4, 2.68, 2.23, 2.41, 3.22, 3.9, 3.13, 2.4, 0.0, -2.24, -2.4, -2.68, -3.13, -3.39, -4.02, -4.02, -4.02, -8.0, -8.0, -8.0, -8.37, -8.37, -8.08, -8.08, -8.08, -8.08, -8.15, -8.38, -8.73, -8.45, -8.78, -8.78, -8.5, -8.78, -8.78, -8.78, -9.37, -9.59, -9.94, -9.66, -9.66, -9.66, -9.37, -9.37, -8.94, -8.65, -8.08, -8.0, -7.44, -7.44, -6.87, -6.87, -6.59, -6.64, -6.67, -6.35, -6.34, -6.32, -6.28, -5.69, -5.65, -5.37, -5.35, -5.29, -4.71, -4.65, -4.07, -3.43, -3.35, -2.79, -1.26, 0.0, 0.0, 0.0, 0.0, 0.63, 0.89, 1.34, 1.34, 1.79, 1.79, 1.79, 1.86, 2.53, 1.98, 1.13, 0.0, 0.0, -1.4, -2.8, -2.4, 0.0, 0.0, 0.0, 0.0, -0.98, 0.0, 0.0, 1.4, 3.13, 0.96, 1.6, 2.53, 3.6, 3.47, 3.13, 1.58, 0.0, -2.0, -2.8, -3.13, -3.58, -4.02, -4.02, -4.02, -8.0, -8.0, -8.0, -8.37, -8.37, -8.08, -8.08, -8.08, -8.08, -8.15, -8.38, -8.73, -8.45, -8.78, -8.78, -8.78, -8.78, -8.78, -8.78, -9.37, -9.94, -10.15, -9.66, -9.66, -9.94, -9.37, -9.02, -8.73, -8.65, -8.37, -8.0, -7.44, -7.44, -6.87, -6.87, -6.92, -6.64, -6.95, -6.65, -6.34, -6.32, -6.28, -5.95, -5.98, -5.65, -5.32, -5.35, -5.29, -4.71, -4.65, -3.73, -3.43, -2.5, -1.58, -0.6, 0.0, 0.0, 0.0, 0.0, 0.63, 0.89, 1.34, 1.34, 1.34, 1.79, 1.7, 2.23, 1.88, 1.08, 1.08, 0.0, 1.13, 0.0, 0.0, -1.2, -0.98, -1.08, -1.08, -2.23, -1.13, 0.0, 1.4, 0.96, -0.0, -0.0, 1.6, 3.22, 3.6, 3.13, 2.24, -0.0, -0.0, -1.9, -3.13, -3.58, -4.02, -4.02, -4.02, -8.0, -8.0, -8.0, -8.37, -8.37, -8.37, -8.08, -8.08, -8.08, -8.44, -8.38, -8.73, -8.45, -8.45, -8.78, -8.78, -8.78, -8.78, -9.37, -9.86, -10.41, -10.51, -10.51, -9.66, -9.37, -9.37, -9.3, -8.73, -8.29, -8.37, -8.0, -7.44, -7.44, -7.09, -6.87, -6.92, -6.95, -6.95, -6.95, -6.34, -6.32, -6.28, -6.28, -6.23, -6.23, -5.65, -5.93, -5.59, -5.29, -4.71, -4.65, -3.73, -2.79, -1.9, -0.99, -0.6, 0.0, 0.0, 0.0, 0.0, 0.89, 0.89, 1.34, 1.34, 1.79, 1.79, 1.86, 1.2, 1.08, 0.0, 0.0, 1.08, 1.13, 0.0, 0.0, -2.23, -2.0, -2.2, -2.23, -1.4, 0.0, 2.53, 2.95, -0.0, -0.0, 0.98, 3.16, 4.0, 3.6, 2.21, -0.0, -0.0, -1.58, -2.4, -3.58, -3.58, -3.58, -3.58, -8.43, -8.43, -8.55, -8.55, -8.55, -8.55, -8.37, -8.08, -8.08, -8.65, -8.38, -8.38, -8.73, -8.45, -8.78, -8.78, -8.78, -9.02, -9.59, -10.41, -10.79, -10.51, -10.15, -9.94, -9.37, -9.37, -9.02, -8.38, -8.29, -8.0, -8.0, -7.44, -7.44, -7.44, -6.87, -6.92, -6.95, -6.95, -6.95, -6.64, -6.59, -6.87, -6.52, -6.57, -6.57, -6.23, -5.65, -5.93, -5.35, -5.29, -4.71, -4.07, -2.84, -2.21, -1.49, -0.57, -0.57, -0.6, 0.0, 0.0, 0.0, 0.45, 0.89, 1.34, 1.79, 1.79, 1.6, 1.24, 1.16, 0.0, 0.0, 0.0, 0.98, 0.0, 0.0, -2.0, -1.83, -1.83, -1.08, 0.0, 0.0, 4.92, 4.98, 1.99, -0.0, -0.0, 1.8, 2.41, 3.22, 1.98, -0.0, -0.85, -1.0, -2.4, -3.39, -3.9, -3.9, -3.9, -8.43, -8.43, -8.55, -8.55, -8.55, -8.55, -8.55, -8.55, -8.29, -8.65, -8.65, -8.38, -8.73, -8.73, -8.78, -8.78, -8.78, -9.02, -9.86, -10.41, -10.96, -10.51, -10.15, -9.37, -9.37, -9.37, -9.02, -8.73, -8.65, -8.08, -8.0, -7.44, -7.44, -7.44, -7.21, -6.92, -6.64, -6.95, -6.95, -6.92, -6.59, -6.87, -6.87, -6.79, -6.57, -6.23, -6.23, -5.65, -5.93, -5.35, -4.94, -4.07, -3.43, -2.23, -1.88, -1.2, -1.24, -0.57, -0.8, -0.6, 0.0, 0.0, 0.89, 1.2, 1.6, 1.34, 1.6, 1.58, 1.2, 1.08, 0.0, 0.0, 0.0, 0.0, -1.27, -2.48, -2.95, -1.99, -0.96, 0.0, 2.53, 4.77, 5.36, 4.54, 0.96, -0.0, -0.0, 1.66, 2.68, 1.98, -0.0, -0.85, -1.9, -2.8, -3.39, -3.9, -3.9, -3.9, -8.43, -8.43, -8.82, -8.72, -8.55, -8.55, -8.55, -8.55, -8.55, -8.65, -8.65, -8.38, -8.73, -8.73, -8.73, -8.45, -8.78, -9.66, -10.41, -10.96, -10.96, -10.51, -10.15, -9.37, -9.02, -9.02, -9.02, -8.73, -8.38, -8.08, -7.73, -7.44, -7.44, -7.44, -7.21, -6.92, -6.64, -6.95, -6.95, -6.92, -6.92, -6.87, -6.87, -6.79, -6.57, -6.23, -6.23, -5.98, -5.65, -5.59, -5.01, -4.11, -3.48, -2.84, -2.23, -1.88, -1.49, -1.24, -0.99, -0.6, 0.0, 0.0, 0.45, 1.2, 1.2, 1.34, 1.34, 1.26, 1.24, 1.27, 0.98, 0.98, 0.98, 0.0, 0.0, -2.23, -2.23, -2.0, -0.96, 0.98, 1.8, 3.35, 4.47, 3.79, 1.99, -0.0, -0.0, 0.88, 2.3, 1.8, 0.99, -0.0, -1.2, -2.53, -3.39, -3.9, -3.9, -3.9, -8.43, -8.43, -8.96, -8.96, -9.1, -8.93, -8.55, -8.55, -8.55, -8.65, -8.65, -8.65, -8.73, -8.73, -8.73, -8.73, -8.73, -9.86, -10.41, -10.96, -10.96, -10.51, -10.15, -9.59, -9.02, -9.02, -9.02, -8.73, -8.38, -8.15, -8.08, -7.51, -7.17, -6.92, -6.92, -6.92, -6.95, -6.95, -6.95, -6.64, -6.92, -7.21, -6.87, -6.79, -6.79, -6.23, -6.23, -6.23, -5.65, -5.65, -5.35, -4.71, -3.79, -2.86, -2.51, -1.88, -1.88, -1.9, -1.24, -1.26, -0.6, 0.0, 0.0, 0.63, 0.95, 0.95, 0.89, 0.95, 0.8, 0.71, 1.16, 1.08, 1.08, 0.98, 0.0, 0.0, -0.98, -1.27, 0.0, 0.0, 0.0, 1.27, 4.02, 3.93, 1.7, -0.0, -0.96, -0.0, 1.55, 1.66, 1.6, -0.0, -0.0, -2.53, -2.98, -3.82, -3.82, -3.82, -8.68, -8.68, -8.82, -8.96, -9.35, -9.1, -9.1, -9.1, -8.93, -8.93, -8.65, -8.65, -9.01, -8.73, -8.73, -8.73, -8.94, -9.5, -10.41, -10.96, -10.96, -10.51, -10.15, -9.59, -9.02, -9.3, -8.73, -8.73, -8.15, -8.15, -7.55, -7.51, -6.92, -6.92, -6.64, -6.95, -6.67, -6.67, -6.67, -6.95, -6.92, -7.21, -6.87, -6.87, -6.79, -6.57, -6.23, -6.23, -5.98, -5.65, -5.06, -4.43, -4.11, -3.48, -2.86, -2.23, -2.21, -1.88, -1.9, -1.24, -0.8, 0.0, 0.0, 0.0, 0.95, 0.63, 0.89, 0.63, 0.6, 0.57, 0.54, 0.98, 1.8, 1.55, 1.08, 0.88, 0.0, -1.27, -0.98, -1.08, 0.0, 0.0, 3.39, 3.72, 1.05, -0.0, -0.96, -0.0, -0.0, 0.73, 0.79, -0.0, -0.0, -1.74, -2.6, -3.47, -3.47, -3.47, -8.68, -8.68, -8.68, -8.96, -8.96, -9.1, -9.1, -9.1, -9.1, -9.1, -8.84, -8.65, -9.21, -9.21, -9.21, -9.21, -9.21, -9.76, -9.86, -10.41, -10.41, -10.41, -9.94, -9.59, -9.3, -8.73, -8.15, -8.15, -7.86, -7.59, -7.55, -7.23, -7.23, -6.95, -6.95, -6.95, -6.97, -6.97, -6.97, -6.95, -6.92, -6.92, -6.87, -6.87, -6.52, -6.57, -6.23, -6.23, -5.98, -5.65, -5.35, -4.43, -4.11, -3.79, -3.16, -2.84, -2.79, -2.53, -2.5, -1.9, -1.26, -0.6, 0.0, 0.0, -0.0, -0.0, 0.0, 0.0, 0.0, 0.0, 0.0, 0.57, 0.65, 0.0, 0.98, 1.08, 0.0, -1.27, -1.8, -2.0, -1.08, 0.0, 2.21, 3.39, 2.0, -0.0, -0.96, -0.0, -0.0, -0.0, -0.0, -0.0, -0.79, -1.98, -2.98, -3.47, -3.47, -3.47, -8.68, -8.68, -8.68, -8.96, -8.96, -9.1, -9.1, -9.1, -9.1, -9.1, -8.84, -8.65, -9.21, -9.21, -9.21, -9.21, -9.21, -9.76, -9.86, -10.41, -10.41, -10.41, -9.94, -9.59, -9.3, -8.73, -8.15, -8.15, -7.86, -7.59, -7.55, -7.23, -7.23, -6.95, -6.95, -6.95, -6.97, -6.97, -6.97, -6.95, -6.92, -6.92, -6.87, -6.87, -6.52, -6.57, -6.23, -6.23, -5.98, -5.65, -5.35, -4.43, -4.11, -3.79, -3.16, -2.84, -2.79, -2.53, -2.5, -1.9, -1.26, -0.6, 0.0, 0.0, -0.0, -0.0, 0.0, 0.0, 0.0, 0.0, 0.0, 0.57, 0.65, 0.0, 0.98, 1.08, 0.0, -1.27, -1.8, -2.0, -1.08, 0.0, 1.13, 3.13, 2.53, 1.08, -0.0, -0.0, -0.0, -0.0, -0.0, -0.0, -1.08, -2.23, -3.35, -4.02, -4.02, -4.02]}]